GFSFLT2_500_spd_000.txt.gz
Wind_Speed
59 53 51 49 48 46 47 46 45 44 41 28 18 16 14 13 13 11 13 17 10 10 12 15 19 21 23 19 16 18 19 19
59 56 59 57 50 50 53 52 50 49 43 34 23 22 20 18 19 21 19 18 9 10 12 13 17 16 14 13 16 19 21 23
60 61 57 64 62 58 55 55 52 48 47 37 33 31 27 23 26 15 21 16 8 12 8 9 15 15 11 10 12 16 20 24
56 57 58 58 63 59 58 58 57 51 46 39 31 27 26 25 26 21 22 18 15 13 14 7 5 4 6 9 13 15 17 20
51 50 57 61 63 61 61 58 61 56 49 37 30 23 26 28 27 23 22 17 13 11 5 7 8 6 11 12 13 16 21 25
57 54 54 61 64 65 61 61 56 54 41 32 23 24 23 32 29 25 22 18 16 14 9 5 9 10 13 16 19 23 28 30
43 44 47 53 55 58 59 55 53 41 33 24 24 22 23 18 21 22 23 23 22 17 14 14 13 13 16 19 22 24 24 28
35 39 44 51 54 55 60 54 46 35 28 24 22 26 26 21 25 26 20 18 12 13 14 18 22 22 20 24 27 29 27 30
30 30 41 53 51 52 49 49 41 35 19 19 21 26 26 25 24 25 21 14 13 15 19 26 29 29 29 31 34 38 35 31
32 30 40 45 46 49 45 45 41 37 29 23 23 25 26 28 21 20 15 18 21 22 25 31 32 34 33 36 38 39 38 37
39 37 35 38 47 52 47 41 40 38 40 40 35 35 33 31 24 20 20 22 27 32 36 35 35 38 38 40 43 44 40 42
42 40 38 37 44 52 43 37 37 39 41 44 45 38 29 24 25 27 30 32 38 40 45 37 38 44 45 47 48 51 52 48
39 42 39 38 40 35 42 47 29 34 41 41 47 48 38 30 25 26 31 38 40 40 42 44 47 49 51 50 54 53 52 44
31 40 38 36 37 40 37 45 37 38 37 36 41 43 42 36 34 35 34 38 42 46 50 51 52 54 50 54 53 50 39 42
39 39 37 34 33 36 39 40 41 40 37 31 29 37 33 37 30 33 37 39 44 48 54 59 53 45 48 46 53 55 44 47
35 40 44 41 40 39 34 36 40 40 44 42 41 37 35 32 31 30 33 42 50 56 60 49 46 48 47 48 54 52 47 46
39 36 37 47 44 43 44 41 39 39 34 33 35 35 36 37 38 39 42 46 49 56 54 50 52 47 50 54 54 49 49 42
34 36 36 48 36 40 42 45 41 41 44 43 44 39 38 41 45 46 50 48 37 36 50 54 47 40 42 39 38 40 42 44
28 40 40 43 43 30 38 43 44 42 38 39 41 43 46 46 55 44 37 37 40 36 36 36 39 44 45 43 47 47 43 44

GFSFLT2_500_spd_003.txt.gz
Wind_Speed
64 65 58 60 58 46 45 46 40 42 35 24 16 20 21 19 20 19 11 11 17 19 21 14 15 19 26 30 26 26 21 17
66 70 66 61 57 55 52 54 56 52 43 27 22 19 22 23 18 15 13 16 21 22 17 13 12 15 20 17 15 13 11 14
68 76 72 70 67 64 59 56 54 52 48 31 26 22 22 24 24 21 19 19 24 21 13 13 14 10 9 10 8 5 8 10
62 70 76 72 69 64 64 60 58 56 49 39 30 26 26 20 19 24 20 21 23 19 19 17 14 5 6 4 5 8 12 13
53 61 70 73 73 69 69 65 66 61 55 46 34 31 28 26 22 18 20 23 21 16 17 13 9 8 4 5 7 13 13 18
53 60 61 65 70 72 73 74 67 66 56 48 41 37 32 27 22 24 23 27 19 20 19 20 12 11 7 7 11 13 19 20
48 50 55 60 59 65 67 66 67 61 55 44 42 41 37 30 21 26 30 29 22 26 25 21 18 12 11 9 12 18 20 22
44 39 45 54 59 59 58 60 60 54 56 47 42 30 26 22 21 22 26 27 22 26 23 21 17 15 13 15 19 19 22 26
38 35 37 45 54 54 55 59 57 56 52 46 26 25 26 24 28 23 24 21 21 21 21 18 21 23 25 23 23 25 28 29
33 35 39 48 51 52 54 57 59 57 51 33 27 25 28 25 29 28 28 25 22 23 23 27 31 30 24 26 29 33 35 37
37 35 37 47 45 51 52 51 55 50 44 32 30 29 27 28 28 30 28 26 27 32 37 37 31 31 29 34 35 37 40 41
46 37 38 37 35 39 42 45 42 41 39 33 36 36 34 32 33 33 30 35 34 38 39 36 34 36 37 36 40 44 47 48
49 40 43 35 26 33 40 39 38 34 36 37 35 37 38 39 38 35 33 39 37 38 37 37 40 41 43 44 50 53 53 51
51 41 38 43 30 30 35 34 35 40 36 36 36 38 42 43 39 38 36 33 32 35 36 40 42 44 49 53 57 59 62 52
50 51 40 42 34 30 30 31 39 38 43 34 36 35 40 40 40 40 38 45 32 29 35 40 43 47 53 58 59 55 43 40
30 54 53 39 37 37 37 37 39 35 35 43 43 41 39 38 44 41 44 46 38 41 38 38 40 42 46 50 50 54 47 45
36 20 35 38 38 37 40 40 39 39 39 41 44 43 37 39 39 39 39 43 39 37 39 39 42 43 43 45 48 48 51 50
29 39 26 36 34 36 38 42 46 43 40 39 40 41 39 41 42 42 43 39 40 44 44 45 49 47 42 42 45 47 46 43
20 23 36 32 30 40 40 44 44 45 43 36 34 36 37 37 37 40 45 44 44 45 47 52 49 47 45 38 37 39 40 42

GFSFLT2_500_spd_006.txt.gz
Wind_Speed
53 58 58 56 59 44 34 33 33 29 36 33 27 29 27 20 26 26 27 23 12 14 12 14 17 14 16 19 21 20 21 25
50 57 59 64 54 54 48 44 40 35 29 23 27 25 24 23 23 24 24 16 15 16 18 17 11 14 16 16 18 19 19 16
46 55 59 62 64 62 49 47 43 40 38 29 26 30 31 22 26 25 24 19 19 20 24 22 18 12 14 15 15 14 12 9
40 48 53 50 56 57 59 60 49 46 38 26 30 32 29 27 21 27 29 28 24 22 26 27 22 14 14 14 12 11 10 9
37 38 49 55 56 52 57 50 52 48 42 33 26 31 29 22 24 22 21 28 27 26 21 21 19 15 13 12 11 11 9 11
34 34 36 52 63 62 53 62 60 58 41 35 34 45 33 28 25 24 21 22 24 24 25 23 20 19 17 16 14 15 15 16
34 36 30 38 42 57 69 67 60 52 51 48 43 43 36 33 29 27 24 28 24 27 23 25 21 21 20 20 21 21 22 21
32 31 33 36 40 44 47 71 68 61 56 39 43 51 47 34 31 28 27 28 27 28 31 27 27 25 27 26 25 26 21 20
30 23 30 37 39 40 47 50 58 65 68 67 55 49 42 37 32 27 27 31 29 29 35 34 30 28 29 28 25 23 23 22
31 34 33 32 30 35 39 46 51 56 46 54 56 52 44 36 33 30 32 30 33 37 33 30 32 34 33 26 23 28 27 29
40 34 28 26 26 29 34 40 42 48 48 48 52 52 43 34 35 32 34 32 37 34 31 33 35 35 34 29 28 33 33 34
39 41 40 35 28 34 36 47 48 43 48 48 51 48 36 40 34 35 32 31 39 37 35 35 37 38 36 34 32 32 34 37
45 43 39 47 39 36 29 37 36 47 45 46 48 42 42 42 36 37 35 31 31 34 40 39 40 41 43 37 38 37 37 40
47 45 37 43 36 36 27 30 33 36 43 37 40 39 44 39 36 39 37 38 36 34 33 44 48 48 43 44 39 40 42 44
50 49 54 49 36 31 30 31 30 27 32 35 35 39 42 39 37 39 39 38 37 38 37 41 49 46 42 44 43 41 40 44
41 42 40 39 45 42 35 33 32 33 32 36 35 37 38 38 38 38 41 41 40 39 41 42 47 53 38 45 42 42 40 44
39 34 31 35 38 39 41 37 37 36 37 38 40 39 45 47 46 44 46 45 42 42 43 47 50 47 43 45 49 47 49 51
35 31 29 37 38 48 44 39 37 42 45 42 40 43 46 56 52 40 46 45 42 40 44 45 46 45 47 50 52 52 52 47
31 31 29 20 41 41 44 46 46 44 44 46 42 42 45 40 39 42 50 48 36 35 40 46 48 47 49 46 41 40 42 43

GFSFLT2_500_spd_009.txt.gz
Wind_Speed
31 35 46 46 54 43 36 31 34 32 32 30 29 31 32 30 24 25 32 24 23 14 14 10 11 14 15 17 17 19 20 21
31 35 41 51 43 48 49 46 40 34 32 29 33 36 31 31 27 23 25 28 26 21 16 14 14 15 13 15 19 19 20 21
30 37 36 46 56 48 46 47 45 40 35 32 28 25 27 28 21 24 24 26 24 19 15 16 19 18 16 16 18 19 18 19
35 32 33 38 43 54 48 53 49 45 39 29 33 28 27 28 30 21 22 28 27 26 24 20 20 20 24 19 17 17 19 21
37 31 35 39 41 47 55 45 53 51 49 36 27 26 28 29 29 26 21 23 29 31 32 27 22 19 21 19 15 16 17 15
38 36 30 32 38 43 46 57 55 53 44 38 38 32 29 34 33 33 31 34 33 30 32 32 25 23 23 18 18 16 17 17
40 34 25 31 33 38 46 49 53 50 45 43 42 38 36 31 32 31 29 33 27 30 32 29 26 27 24 20 21 21 20 19
39 32 34 32 32 37 38 45 51 49 49 44 44 38 33 36 40 40 28 31 31 30 31 29 29 26 24 24 24 25 20 20
39 33 31 34 38 37 38 40 41 50 55 46 46 45 46 48 46 46 34 29 35 33 29 32 32 32 32 30 28 25 20 18
36 31 35 38 33 31 36 38 39 42 38 40 51 55 48 39 41 40 36 36 37 33 30 36 32 32 34 35 31 23 23 21
35 36 34 33 34 34 36 36 37 37 38 37 35 39 53 61 54 42 45 27 39 33 34 35 36 34 36 36 32 28 29 25
35 40 38 29 37 26 37 42 40 39 33 36 36 31 33 33 52 53 37 41 40 37 36 38 36 36 39 39 35 31 30 28
44 37 37 41 41 33 33 25 29 32 37 34 38 30 35 42 42 44 39 44 44 38 37 39 39 37 37 36 35 35 36 33
41 41 40 38 39 40 35 39 27 23 22 39 36 34 49 45 38 34 42 46 46 39 37 40 43 40 39 40 41 42 42 40
34 36 43 48 43 41 34 38 30 25 29 32 36 51 47 35 35 36 41 42 45 42 35 32 32 32 41 45 46 45 46 44
43 45 49 47 44 30 30 31 28 32 31 32 30 34 32 32 34 40 45 47 46 42 40 39 36 37 35 37 45 49 48 49
57 59 55 50 41 34 30 34 34 35 34 33 34 37 37 36 37 39 45 48 42 42 42 42 40 42 43 43 43 46 49 49
55 50 48 44 38 30 30 34 34 35 32 37 34 35 39 39 39 37 36 39 42 42 43 46 47 45 44 45 44 46 48 48
34 33 32 36 34 29 28 34 36 39 38 34 32 33 37 39 39 36 40 45 46 47 46 46 47 48 46 48 49 47 49 50

GFSFLT2_500_spd_012.txt.gz
Wind_Speed
29 30 35 35 44 41 37 32 34 32 32 30 30 36 34 18 28 23 21 29 29 21 18 15 10 10 13 14 17 18 19 21
30 32 33 39 31 41 47 46 44 36 34 34 29 39 37 29 24 25 26 31 37 27 23 18 14 11 12 14 14 15 16 17
31 41 35 39 43 45 39 49 49 43 40 30 28 32 38 42 33 25 31 36 35 26 26 18 17 14 13 14 17 18 17 18
39 31 31 37 39 44 52 48 50 47 45 24 27 30 34 41 35 32 31 26 32 30 24 23 19 16 13 14 19 19 17 16
44 38 34 40 38 39 44 50 48 50 53 39 29 35 33 31 24 23 29 35 31 29 28 26 24 21 20 15 19 17 14 10
49 45 33 36 39 39 41 45 58 51 44 46 42 43 37 23 24 28 40 37 27 28 30 22 26 23 23 19 22 18 12 8
46 41 29 36 35 38 41 44 50 53 48 40 51 37 33 34 29 25 27 37 37 37 38 33 32 27 26 26 27 21 16 10
51 40 41 35 33 39 37 41 42 50 46 47 42 54 46 34 37 36 32 37 50 41 39 36 36 29 27 28 27 24 20 13
56 48 35 41 47 35 33 35 36 38 53 48 48 44 49 48 40 35 37 36 47 45 38 36 37 35 32 28 28 26 24 15
52 40 42 54 35 36 37 36 34 35 38 42 52 58 55 54 44 46 46 39 40 48 47 41 38 36 34 33 29 27 28 22
44 48 45 39 35 36 35 33 35 39 38 33 35 56 62 61 57 49 50 38 49 52 53 47 39 35 35 36 29 29 28 25
46 45 51 43 35 43 50 47 43 41 39 38 35 37 41 67 63 60 52 47 49 51 46 37 38 38 37 38 33 33 30 26
50 52 38 35 41 42 47 46 36 40 42 43 47 44 38 31 47 67 57 48 57 41 36 42 35 37 34 34 35 31 31 27
47 43 44 49 45 35 43 37 39 43 43 45 48 46 36 41 36 41 48 63 58 47 51 36 39 39 37 36 35 32 32 31
55 52 32 18 50 46 40 42 34 36 40 33 37 47 47 53 51 42 44 52 64 65 54 46 44 43 40 38 36 35 36 35
49 47 45 52 47 43 46 43 42 42 42 41 35 41 47 52 55 48 49 47 47 48 48 48 46 43 37 37 37 37 36 38
43 45 53 51 54 54 52 47 38 44 39 41 40 41 46 55 55 54 47 47 46 45 45 45 45 42 38 36 34 34 35 40
47 57 57 58 53 49 45 43 40 37 39 41 43 39 41 50 49 46 45 46 48 42 39 40 41 44 41 39 41 43 43 45
58 57 61 71 61 48 41 38 36 35 36 40 36 39 44 38 40 38 33 39 38 36 40 42 44 47 47 45 47 48 51 47

GFSFLT2_500_spd_015.txt.gz
Wind_Speed
29 24 30 32 36 35 46 44 47 46 37 23 25 23 26 27 31 31 26 21 16 8 11 16 15 12 13 11 11 17 18 19
30 31 34 35 29 32 41 48 52 41 44 32 22 28 31 30 31 33 27 22 14 10 19 21 19 14 15 9 10 9 11 14
38 41 37 35 39 42 36 43 45 46 49 34 29 23 35 31 34 38 39 34 25 16 27 18 19 21 20 12 11 11 12 10
45 42 40 36 39 40 48 41 47 50 46 34 32 26 28 34 29 30 36 31 25 24 29 20 22 20 17 12 11 13 12 10
47 47 47 46 40 41 42 44 48 45 39 36 39 32 29 39 39 31 24 26 29 32 32 29 22 20 22 18 14 15 11 9
53 51 48 49 44 40 41 47 44 48 40 33 47 46 38 35 35 31 22 33 37 40 36 33 24 23 25 20 19 17 12 10
57 49 46 49 47 41 42 43 45 38 44 42 45 49 42 37 29 28 36 34 35 38 38 39 31 31 21 21 23 22 20 15
57 55 47 49 51 43 40 39 42 39 42 41 45 46 32 24 35 40 31 43 46 39 43 43 37 35 37 32 24 23 23 19
67 59 52 51 57 51 42 38 35 44 39 34 45 52 45 32 30 38 36 33 28 46 46 47 42 40 36 33 27 24 25 22
66 62 59 60 53 50 44 41 40 39 35 35 38 49 58 49 44 46 47 48 43 37 43 47 43 44 40 36 31 28 30 27
61 67 66 61 52 48 46 48 44 42 42 40 34 37 61 67 55 53 63 50 49 50 39 39 39 39 40 42 36 35 34 32
48 62 71 63 53 44 50 53 49 49 50 46 43 43 39 63 69 59 53 56 58 46 36 44 46 38 40 42 38 39 33 33
50 59 64 60 51 43 46 53 48 50 49 46 47 44 45 45 63 70 71 62 53 51 52 53 36 44 45 41 42 34 35 37
41 47 54 52 51 52 53 52 56 56 48 44 42 43 43 39 38 47 76 74 70 57 51 49 52 49 37 36 37 38 37 41
46 46 47 45 47 54 58 52 56 49 50 45 49 42 41 37 37 39 46 52 74 72 67 59 51 51 53 41 40 37 37 40
57 54 57 54 50 60 66 64 57 44 42 46 40 40 41 41 41 45 51 51 52 50 74 67 61 51 51 43 40 42 39 39
56 57 53 46 60 66 64 48 49 46 41 41 41 42 43 46 47 48 51 55 57 54 54 53 48 59 56 50 44 44 40 43
57 56 54 45 46 34 40 42 34 34 40 36 40 40 47 51 51 47 50 53 60 58 55 58 46 48 56 60 55 49 46 42
65 56 58 58 62 56 59 52 47 43 39 40 41 46 45 41 41 48 60 40 54 58 53 59 49 48 46 44 48 48 45 41

GFSFLT2_500_spd_018.txt.gz
Wind_Speed
32 25 30 29 40 35 44 47 52 46 49 39 27 25 18 17 22 14 14 11 21 21 25 10 1 5 10 12 11 11 15 16
34 34 37 35 28 37 41 48 54 49 51 40 33 25 19 20 22 19 20 17 18 11 10 8 5 5 11 10 10 9 9 11
41 46 38 38 39 40 40 38 44 44 40 40 32 29 24 27 20 22 23 19 14 16 21 22 16 5 12 14 14 11 12 10
48 43 43 46 41 41 42 40 38 33 30 24 36 37 35 23 18 23 21 21 20 17 22 23 13 11 12 14 14 11 12 10
54 53 53 54 47 43 43 43 45 43 33 21 36 44 40 32 29 21 25 27 30 25 20 19 14 15 13 15 15 14 14 11
62 54 52 54 52 49 48 50 46 44 39 23 34 47 37 34 26 22 36 37 32 31 24 22 22 21 14 18 19 19 18 14
67 60 50 54 53 53 53 49 52 40 43 33 28 49 40 34 40 30 28 38 45 42 25 30 30 26 18 20 19 19 19 20
73 67 62 55 58 58 55 50 50 46 42 37 32 44 52 45 36 38 26 31 39 37 26 35 32 28 23 25 20 23 22 21
75 69 60 50 64 63 59 56 54 52 43 35 38 34 49 57 49 48 33 30 30 31 30 32 36 31 31 30 31 32 31 24
74 69 63 67 61 62 61 58 56 54 47 40 40 39 38 54 56 47 44 36 38 37 35 37 34 35 36 38 30 25 27 27
76 67 65 63 64 60 63 60 56 55 52 49 40 41 39 43 57 58 52 57 52 47 41 37 42 47 41 44 33 33 31 31
62 74 68 71 65 63 52 62 61 57 52 48 44 41 40 41 44 59 64 63 57 59 56 47 38 44 51 47 39 40 32 33
49 61 72 73 63 59 51 52 53 55 52 49 46 42 36 35 35 52 61 63 62 57 62 58 49 54 45 44 50 41 34 36
66 47 57 69 62 56 57 51 54 53 54 53 48 46 44 38 36 42 57 53 66 67 62 58 60 67 60 55 42 44 37 39
58 38 51 69 48 54 58 57 54 58 57 57 52 50 50 45 38 37 38 43 57 73 72 68 66 58 60 55 52 54 45 43
59 38 45 60 70 56 53 61 61 60 58 59 54 50 46 46 48 46 48 47 46 51 56 59 62 65 62 56 51 48 47 44
63 35 65 65 60 63 58 58 66 65 60 57 55 47 41 46 52 49 47 51 52 50 48 49 48 51 58 66 60 59 48 48
58 47 58 60 63 65 59 61 62 59 55 56 56 57 51 53 52 54 55 50 48 51 53 51 56 51 48 53 60 64 64 71
66 49 45 55 50 50 49 48 47 49 61 56 49 65 67 51 52 51 48 51 51 55 63 54 46 51 58 54 56 62 68 71

GFSFLT2_500_spd_021.txt.gz
Wind_Speed
35 32 34 31 38 31 46 49 50 44 42 33 31 26 23 24 21 19 14 7 8 6 19 28 24 16 12 5 6 9 13 18
35 40 42 38 28 37 43 48 50 41 39 29 31 31 29 28 23 18 17 12 8 3 5 4 8 13 14 7 7 9 10 12
44 50 43 41 41 42 42 44 41 38 31 31 28 32 30 30 24 20 15 13 11 9 7 14 13 12 14 9 7 8 10 11
52 45 43 46 44 45 46 39 36 36 34 24 31 27 35 31 34 28 24 23 17 17 18 19 14 15 16 14 11 12 13 13
58 55 57 58 53 47 41 41 44 41 32 20 22 27 38 40 38 35 31 30 28 27 27 22 20 19 19 16 16 17 14 12
62 57 57 60 57 51 49 54 44 43 33 22 23 28 36 45 44 35 38 32 37 32 30 32 26 20 23 19 20 20 18 14
67 64 65 62 60 55 57 52 52 35 40 28 24 30 30 41 48 46 44 41 38 37 35 35 30 29 26 21 20 22 22 17
74 70 68 71 66 59 58 54 53 45 46 33 27 33 37 41 48 50 50 48 43 43 32 37 32 30 29 27 23 23 23 18
81 77 75 74 69 64 61 58 55 52 42 37 35 34 39 39 41 47 50 44 43 44 37 31 26 19 33 29 28 26 23 22
86 79 81 70 64 65 65 64 60 57 49 46 40 37 36 41 43 49 52 50 46 43 43 30 23 30 29 33 31 29 30 29
87 82 82 77 72 65 65 64 63 61 54 52 47 42 41 40 41 46 51 55 51 45 46 46 45 30 29 33 35 37 35 36
86 84 82 80 73 72 64 66 59 61 58 53 53 50 41 36 39 40 46 57 62 59 55 55 54 47 38 36 37 39 40 38
87 81 85 79 73 69 65 69 58 59 59 52 52 50 44 37 34 36 42 52 53 52 56 55 48 45 46 40 42 38 41 40
92 79 75 69 61 51 53 63 65 56 56 55 54 50 47 41 36 34 37 38 46 55 54 49 47 46 48 42 37 40 43 40
88 88 68 57 55 56 45 51 60 67 58 52 55 55 52 47 41 36 34 32 33 39 57 54 55 53 51 50 45 49 51 53
78 72 67 58 53 59 57 51 52 59 59 53 53 54 56 54 48 41 39 39 40 40 43 50 59 62 61 62 55 51 51 52
54 51 67 57 60 59 59 58 60 67 66 53 53 53 53 55 55 48 47 47 46 48 49 48 49 52 54 61 61 64 66 57
46 46 57 46 49 61 66 63 61 64 65 60 57 53 53 55 54 50 52 51 52 52 55 55 56 54 54 54 55 57 56 67
41 51 62 53 13 40 56 69 71 57 54 56 60 58 58 57 56 56 57 54 58 54 52 57 59 53 56 58 59 64 64 61

GFSFLT2_500_spd_024.txt.gz
Wind_Speed
38 34 34 33 33 30 40 41 41 41 23 29 22 26 27 30 27 28 22 18 15 16 10 10 13 8 10 11 13 15 17 21
36 41 42 39 32 37 42 43 39 36 25 24 19 23 25 25 31 30 27 23 19 15 13 10 18 14 11 9 12 14 14 14
48 50 42 39 41 43 43 41 38 35 24 22 19 20 30 27 31 31 29 29 26 22 15 17 20 17 14 12 13 14 12 13
53 51 49 48 44 46 46 37 35 32 24 21 17 20 25 34 33 31 31 28 26 25 22 22 20 18 16 16 14 14 15 16
55 53 55 58 52 50 45 45 43 38 21 21 14 15 27 36 36 32 31 29 28 28 29 27 26 22 20 20 13 15 17 17
62 57 59 59 57 56 51 55 43 42 25 16 20 18 23 32 40 38 36 34 34 30 31 31 28 25 23 23 21 20 18 20
66 62 61 62 60 58 58 54 55 38 36 25 20 23 24 28 37 44 43 40 41 40 34 36 33 33 27 27 26 24 22 22
70 68 65 63 63 60 58 59 58 47 45 32 26 26 30 32 32 34 43 43 41 39 36 38 39 31 24 30 31 27 24 20
77 74 72 69 63 62 62 61 57 50 44 35 31 31 34 37 36 34 32 35 43 44 41 37 37 32 32 25 33 33 27 27
84 80 79 74 65 66 66 64 60 52 47 45 36 36 36 35 41 40 36 34 35 36 39 38 37 40 36 33 30 27 27 34
91 87 82 80 74 69 69 65 63 60 53 48 46 42 40 39 42 41 41 36 37 41 41 42 40 38 37 36 33 31 19 23
95 93 88 84 78 73 70 71 64 62 58 51 52 51 44 41 42 43 39 42 41 43 43 46 45 44 42 36 32 27 26 29
95 97 96 90 86 80 76 71 64 63 60 55 54 50 47 44 42 41 40 42 41 45 48 46 45 46 46 46 45 33 34 34
98 100 101 93 86 83 80 74 71 67 57 55 57 50 43 45 41 39 37 38 41 41 47 51 51 50 49 45 40 42 44 37
100 106 95 95 88 83 78 78 75 70 61 56 55 51 47 44 40 38 39 42 42 40 40 46 49 48 42 45 46 45 46 45
85 101 100 96 79 79 74 72 66 67 66 64 56 52 45 44 45 42 41 40 42 42 43 40 43 51 54 50 51 51 52 51
53 80 92 94 81 68 65 55 48 38 40 51 46 45 49 44 45 47 49 46 41 42 43 44 45 45 46 50 58 59 54 54
41 45 66 63 73 66 56 59 49 40 37 35 43 40 40 47 47 46 46 48 47 43 45 48 47 48 49 51 50 51 57 63
38 39 41 52 50 62 55 48 53 54 52 42 41 48 52 53 50 42 43 45 45 42 44 46 48 50 51 51 51 54 52 59

GFSFLT2_500_spd_027.txt.gz
Wind_Speed
39 31 33 33 30 26 36 36 35 25 17 13 17 27 26 30 30 29 28 28 29 24 21 21 18 12 14 14 14 14 19 24
42 42 43 38 32 36 36 36 34 24 19 10 14 21 26 30 30 28 25 25 27 24 22 21 20 17 19 18 14 15 15 19
48 51 48 41 41 39 39 38 33 24 16 12 11 18 27 32 31 31 27 25 25 26 25 20 20 23 19 19 17 14 13 16
52 49 45 44 44 43 44 37 32 30 27 19 12 18 26 32 33 36 35 34 30 29 26 26 27 25 22 20 17 16 16 18
55 53 51 52 51 49 43 44 44 36 28 19 11 13 22 34 38 35 36 36 36 34 31 27 26 28 26 20 17 18 19 18
60 59 59 57 56 54 49 53 39 38 30 19 23 17 21 31 39 41 42 39 41 38 35 32 31 31 28 25 23 22 22 21
65 64 63 61 60 58 56 51 52 36 35 30 22 25 21 25 37 44 43 43 43 40 37 35 33 31 31 27 27 28 23 22
70 68 66 65 63 62 59 54 52 40 40 33 27 28 26 27 36 44 49 46 47 45 43 41 37 32 31 32 32 27 26 23
74 72 70 70 64 61 58 56 53 46 40 35 33 30 29 29 29 34 42 46 49 49 46 46 45 38 36 29 30 27 25 26
78 75 76 69 68 67 65 61 58 51 44 39 36 34 35 36 34 35 33 35 35 39 46 43 41 39 35 36 32 26 28 32
83 81 78 75 71 70 67 63 61 56 50 46 41 38 39 38 39 40 39 35 34 33 33 41 40 35 39 38 35 36 32 30
89 85 84 75 72 72 69 66 61 58 54 47 45 44 34 40 42 43 41 40 39 36 33 33 34 34 34 38 41 33 31 25
92 91 90 84 78 75 72 68 63 62 59 52 49 45 40 40 43 43 43 44 40 36 33 34 34 35 35 37 35 32 35 33
99 97 94 86 82 80 75 70 66 64 58 57 53 49 46 45 42 44 44 43 43 37 36 35 35 36 37 38 40 42 41 37
99 102 96 92 87 81 78 73 69 64 58 57 54 48 50 47 47 42 39 44 44 41 39 38 36 36 37 40 44 45 44 42
87 100 97 97 91 90 84 78 73 69 65 62 49 50 53 48 45 44 44 38 37 40 41 40 40 40 41 42 44 43 43 42
69 85 92 97 95 94 88 83 77 73 67 59 57 59 56 48 46 44 47 45 39 40 42 43 43 42 39 39 40 46 50 49
42 53 73 75 85 94 90 82 75 77 66 58 50 42 42 50 50 48 48 45 48 45 37 39 41 41 42 41 42 40 40 44
25 42 58 60 70 81 86 80 76 75 61 57 51 41 37 36 38 41 40 41 41 38 36 33 31 36 46 46 44 46 49 50

GFSFLT2_500_spd_030.txt.gz
Wind_Speed
39 36 37 35 36 26 36 34 30 22 22 21 20 33 41 37 35 30 27 26 25 27 27 27 25 23 21 20 19 19 20 23
44 41 41 41 29 40 37 36 29 24 21 15 16 28 36 36 34 29 25 27 28 29 28 27 26 25 25 24 23 21 23 22
52 51 50 47 44 41 36 32 28 22 18 14 16 25 34 36 34 29 27 24 28 30 27 25 25 25 22 23 23 22 19 17
54 52 52 49 43 40 40 33 29 23 19 16 14 23 34 38 36 34 31 29 28 33 30 25 25 26 25 21 24 20 18 15
55 55 57 56 50 49 47 38 35 32 28 20 14 17 29 38 41 38 34 31 28 32 31 30 28 24 20 22 23 21 20 17
55 47 53 56 55 55 51 45 42 38 33 25 19 20 29 35 42 42 40 39 37 34 33 35 31 30 26 24 26 24 22 20
63 64 62 59 59 56 54 49 45 38 34 31 23 24 23 35 41 44 45 44 44 41 43 39 36 33 28 29 28 25 20 20
67 63 64 63 61 59 55 49 47 38 38 35 30 24 23 30 38 39 48 47 44 45 46 43 41 39 35 33 30 30 25 21
71 67 67 69 65 62 58 54 51 43 43 38 37 29 27 28 36 43 47 50 47 45 43 43 41 42 38 36 34 30 27 29
75 76 74 69 66 67 64 57 53 49 49 41 39 35 32 35 35 37 44 45 45 44 46 47 45 44 39 40 39 34 31 26
75 78 73 74 75 71 68 64 60 53 52 48 44 39 33 34 35 35 38 38 44 43 41 46 46 46 46 44 45 44 36 30
80 79 79 74 75 75 73 68 61 59 53 49 47 43 34 30 37 39 41 39 37 39 36 34 34 43 49 41 39 37 34 34
84 84 82 82 82 78 73 66 65 62 57 56 51 49 42 41 35 38 41 42 40 38 35 34 34 34 33 34 31 33 39 39
89 88 88 85 81 80 74 74 70 67 62 61 55 51 46 43 39 38 40 42 42 41 38 36 36 36 35 32 31 33 34 36
94 94 87 88 86 83 78 77 70 66 60 61 57 53 51 45 43 40 38 39 41 41 40 39 37 36 36 35 33 34 35 36
90 94 94 94 85 83 83 75 74 69 63 59 55 52 52 47 45 44 41 41 39 40 41 41 38 37 36 37 39 40 38 38
76 88 93 95 92 88 84 84 78 72 69 66 59 53 49 49 47 45 40 39 38 37 37 36 35 37 38 39 38 38 38 39
48 60 79 90 94 92 92 88 80 76 72 65 60 56 53 52 48 43 41 41 43 40 35 35 33 33 33 36 38 40 40 40
27 47 63 77 88 91 91 88 82 80 72 69 67 59 54 52 49 49 50 48 46 42 37 33 30 33 34 36 37 39 41 41

GFSFLT2_500_spd_033.txt.gz
Wind_Speed
44 41 42 41 42 30 22 21 24 24 26 23 28 34 34 33 38 32 30 24 25 26 27 28 27 26 24 22 20 18 18 17
44 46 46 46 33 41 41 24 25 22 21 24 16 21 26 35 37 35 34 24 26 28 28 28 27 26 25 23 20 20 21 20
50 54 49 47 48 43 36 37 24 19 13 19 25 17 28 34 40 40 37 31 25 27 29 29 29 27 24 23 23 23 21 20
51 50 49 44 46 42 41 36 33 19 18 25 23 20 28 35 40 42 38 33 23 26 31 31 29 28 26 24 24 23 22 22
41 40 53 55 51 45 39 34 33 32 17 25 19 20 29 35 40 41 38 34 29 28 30 28 27 25 25 25 23 23 24 24
52 48 45 53 55 51 47 45 34 34 27 34 26 20 30 35 41 44 45 42 38 36 31 29 27 27 26 24 24 24 24 22
57 34 39 41 53 55 54 48 43 27 30 25 31 18 29 37 39 43 41 37 34 32 32 29 28 28 28 29 27 25 24 20
65 49 58 55 54 54 52 52 47 40 29 28 32 25 25 35 40 39 40 43 44 41 38 33 34 34 32 31 29 26 23 19
70 69 69 67 62 54 46 47 49 50 41 32 37 37 30 30 30 41 41 41 43 41 39 37 38 38 37 37 35 27 23 22
72 68 70 63 58 59 54 54 53 51 50 51 44 32 27 26 29 33 36 47 46 45 43 40 41 41 40 40 36 32 29 25
70 67 60 67 64 61 62 58 51 48 46 46 45 39 36 29 29 31 35 38 47 49 49 48 44 43 41 38 35 38 35 31
75 70 63 44 43 68 68 63 62 54 52 55 51 48 40 37 38 41 41 42 41 41 47 47 42 44 44 40 38 38 37 37
76 76 71 43 42 63 66 54 58 61 59 60 56 53 46 42 36 37 40 40 39 35 33 34 38 38 40 43 44 41 45 44
75 78 77 53 68 63 51 69 70 69 66 66 60 56 45 45 39 38 41 43 42 40 37 35 33 32 33 38 43 45 45 47
78 79 79 72 78 73 79 75 66 76 67 64 61 56 52 47 44 40 41 41 43 43 40 38 35 33 34 34 35 34 34 32
86 90 89 85 84 83 85 80 79 71 65 63 57 56 54 48 46 45 43 44 42 42 43 41 39 36 35 35 33 34 35 35
83 86 89 92 91 86 88 81 79 74 68 63 59 55 53 51 50 46 46 43 44 43 42 41 40 39 37 36 34 35 34 34
67 76 83 89 92 91 87 79 77 73 70 67 63 60 53 51 48 45 47 46 46 44 44 42 42 41 37 36 36 37 37 39
47 64 77 86 93 93 90 87 84 77 74 70 64 60 58 59 50 46 44 42 45 46 43 42 41 39 41 41 39 37 37 37

GFSFLT2_500_spd_036.txt.gz
Wind_Speed
45 43 44 44 45 35 30 23 26 30 28 20 25 36 38 32 33 33 32 27 17 13 17 22 22 20 21 22 21 19 19 18
41 44 44 47 36 38 39 30 25 16 22 24 20 32 38 38 35 36 32 33 23 9 17 21 23 22 23 24 21 20 20 18
37 48 50 49 44 41 36 35 23 14 15 17 24 23 29 32 33 38 37 34 29 11 14 21 26 25 24 22 20 18 18 18
39 41 43 48 48 44 42 39 34 21 15 23 23 22 24 28 31 40 36 34 33 18 16 23 25 25 23 22 20 22 23 21
44 40 41 50 51 50 39 35 38 32 17 26 25 26 24 26 31 33 33 35 36 31 20 21 24 25 23 22 22 24 22 19
60 55 39 48 47 45 44 41 37 35 26 31 27 29 32 28 30 33 36 38 35 37 24 22 23 23 24 23 23 21 18 17
53 40 29 42 45 45 49 40 41 27 32 31 35 24 28 33 32 32 35 38 39 42 33 27 28 26 26 25 23 23 22 20
70 53 47 46 43 41 43 43 32 31 22 35 35 34 22 33 34 36 42 45 46 37 31 27 24 25 28 28 26 26 23 18
67 60 55 45 51 39 39 41 37 40 30 30 29 31 29 31 39 39 36 39 40 36 36 33 27 26 29 27 26 24 23 19
64 63 53 49 52 51 42 40 39 38 40 24 21 29 37 35 36 39 38 35 33 32 30 34 32 31 28 28 28 24 23 19
68 58 60 55 59 57 51 42 37 37 39 45 45 45 47 40 33 31 35 37 39 39 37 35 35 38 37 36 31 29 25 23
66 67 56 41 36 51 55 53 50 52 57 59 63 60 57 33 37 38 37 36 32 32 36 40 39 41 38 36 29 28 25 26
60 68 41 47 40 46 52 56 63 66 68 67 67 68 54 44 41 36 33 33 32 31 30 30 26 24 26 24 29 28 31 34
63 63 52 31 44 49 53 55 65 71 66 60 59 58 57 53 44 37 33 35 36 36 33 33 32 28 29 28 29 27 35 36
52 68 60 42 46 54 56 61 54 63 69 65 61 61 58 52 39 39 41 40 39 38 36 38 33 31 27 26 29 30 32 33
61 65 72 54 56 56 58 65 73 76 71 67 63 59 51 41 43 42 41 41 43 40 39 37 35 33 32 32 31 31 31 32
78 79 78 83 77 73 75 73 73 70 70 69 63 62 60 54 51 47 43 42 41 41 42 40 35 35 34 33 34 32 31 32
77 78 85 87 88 85 88 87 82 76 72 65 56 54 58 49 49 51 49 46 45 43 43 43 41 39 35 34 37 37 36 35
74 73 82 88 89 89 87 86 81 77 72 68 68 62 56 52 53 51 46 45 47 46 45 44 41 40 42 39 37 39 38 38

GFSFLT2_500_spd_039.txt.gz
Wind_Speed
45 44 43 39 45 36 34 32 38 41 41 38 32 35 37 33 37 37 26 20 8 9 9 15 18 19 18 19 19 21 21 18
41 41 46 46 34 39 39 36 34 24 13 20 23 30 40 42 40 34 21 26 9 8 9 11 15 19 19 21 20 22 20 19
41 47 50 50 46 40 36 38 31 23 9 3 16 10 10 38 34 24 29 33 11 12 7 4 12 17 18 20 21 18 17 18
58 52 42 44 49 45 44 38 32 19 21 16 23 17 18 15 36 36 34 33 21 13 12 8 10 15 19 18 17 19 20 19
56 53 49 43 48 49 43 34 37 32 26 17 18 16 17 15 22 36 37 36 33 25 16 11 10 15 18 18 19 21 20 18
63 59 52 49 41 41 47 43 35 37 26 15 14 15 22 15 17 27 40 40 38 30 20 14 14 17 19 20 21 22 20 18
65 59 53 40 44 38 45 44 41 40 33 22 15 17 20 23 24 20 33 44 45 31 27 22 19 17 21 23 23 22 18 17
70 58 50 43 49 42 40 43 41 42 35 26 26 26 25 28 32 32 35 40 38 40 34 27 24 23 24 25 22 20 19 15
70 61 60 52 40 44 31 33 45 44 34 22 25 28 31 30 29 34 43 45 44 41 33 24 20 20 23 25 27 25 22 16
76 63 64 49 43 48 34 25 39 40 30 25 20 28 34 36 32 32 41 38 41 41 30 25 25 20 19 28 28 25 21 20
69 66 65 50 46 43 46 43 45 45 33 33 40 37 42 43 40 37 38 38 33 26 23 24 27 27 23 26 25 26 23 19
72 62 66 56 57 53 52 50 49 51 44 47 44 37 41 42 43 39 34 31 31 32 31 26 27 24 26 26 28 25 22 20
59 64 65 62 63 58 57 54 59 57 49 51 53 54 50 46 39 43 36 33 33 29 29 29 31 32 32 29 27 27 24 22
61 60 64 63 59 67 65 64 65 66 52 58 57 55 53 50 43 34 42 39 36 32 30 30 29 28 26 23 20 19 25 29
69 55 51 54 67 82 72 71 73 70 64 68 65 62 61 58 53 39 37 38 36 35 33 32 30 28 25 23 22 29 29 33
71 74 70 49 50 67 80 75 71 73 77 79 76 72 69 64 59 51 44 39 39 37 36 36 34 29 25 24 23 23 31 36
64 64 79 67 47 59 66 73 68 75 75 76 77 74 70 65 60 57 37 43 42 40 40 36 34 29 30 32 28 28 28 28
62 61 69 73 61 46 56 61 70 76 74 73 71 68 64 61 53 42 48 51 44 47 45 41 38 34 34 35 34 34 33 32
65 66 69 64 68 57 53 58 61 67 70 70 73 72 69 66 63 61 53 50 48 49 47 42 41 39 38 38 35 34 36 36

GFSFLT2_500_spd_042.txt.gz
Wind_Speed
52 47 46 42 49 39 42 46 46 47 45 40 36 38 36 29 34 26 26 13 8 7 5 12 16 17 19 21 22 20 20 20
56 47 48 47 39 41 45 44 47 43 41 41 36 29 24 34 31 21 23 23 10 12 5 11 17 19 20 20 21 22 22 22
48 59 52 52 50 45 40 43 43 34 32 22 29 34 35 34 39 33 24 16 16 9 9 10 18 19 20 20 21 20 20 22
67 53 55 47 52 47 43 45 39 29 27 35 33 31 33 27 48 43 28 23 19 13 13 14 14 20 20 19 20 21 23 23
66 60 57 55 53 49 45 38 40 33 33 36 36 32 26 31 30 48 35 30 24 20 19 18 15 20 20 19 20 23 24 23
72 67 57 60 57 55 51 48 39 37 32 30 23 22 16 26 23 36 40 33 31 24 25 20 16 16 22 22 21 22 22 22
74 71 65 60 59 54 52 51 46 33 38 28 25 21 21 18 16 32 37 34 31 28 28 23 19 14 21 24 23 23 23 21
72 68 65 58 54 49 45 42 43 33 40 24 25 21 27 20 19 18 24 33 35 34 28 27 22 18 14 22 24 25 23 21
70 68 64 54 54 51 43 31 34 40 41 33 31 24 23 26 23 24 26 25 30 31 31 29 26 23 21 17 23 25 23 22
63 68 65 57 45 51 49 39 33 42 36 37 34 27 33 35 34 31 29 29 30 29 28 33 32 31 27 27 24 27 25 22
60 67 67 61 53 52 55 49 43 39 41 41 37 38 39 39 34 37 33 31 30 28 24 18 23 22 21 22 29 27 27 21
65 64 68 66 57 48 53 52 46 42 49 40 44 39 39 40 40 37 35 33 32 29 24 17 22 23 26 23 23 29 27 21
72 70 68 68 59 52 59 60 53 47 53 47 48 44 43 43 43 39 39 34 31 28 26 25 24 26 27 26 21 20 29 35
70 76 65 73 66 52 63 63 60 53 57 57 55 45 46 45 44 40 40 36 32 29 27 25 26 28 31 31 33 35 38 37
69 77 75 66 69 48 68 63 59 59 62 61 60 49 49 47 46 46 42 42 37 38 38 37 30 27 27 29 31 36 39 38
72 72 77 57 70 59 62 68 64 67 76 72 63 61 57 54 52 47 44 43 43 38 38 33 31 30 28 24 24 29 37 40
68 72 73 72 57 69 56 71 71 71 77 75 69 63 60 58 57 54 49 48 43 43 41 38 36 33 31 28 28 28 30 34
62 65 66 70 66 52 62 67 73 75 76 76 74 70 67 64 61 58 54 50 41 39 37 36 37 36 33 33 33 32 31 31
51 67 63 56 58 53 52 58 69 83 84 77 79 76 72 69 65 62 59 55 53 44 42 45 47 43 40 35 34 33 32 34

GFSFLT2_500_spd_045.txt.gz
Wind_Speed
66 57 52 53 57 48 50 52 50 49 53 35 39 37 37 34 31 33 26 17 11 13 8 8 20 23 25 24 24 25 25 24
67 58 53 51 49 50 54 53 56 52 53 38 40 35 36 33 24 24 28 27 21 17 15 6 18 23 26 25 25 25 23 22
68 67 57 55 56 53 47 51 50 47 44 33 34 36 31 27 16 20 28 23 25 21 15 10 16 24 25 25 25 23 20 22
68 63 60 59 58 54 54 54 53 49 39 33 33 37 36 33 27 22 26 21 21 24 21 16 10 23 25 26 23 22 23 25
62 63 68 64 60 55 51 48 50 46 22 35 38 37 37 39 36 36 30 28 27 30 28 20 14 19 25 25 25 25 24 26
67 66 69 68 61 60 58 52 48 47 29 33 35 41 44 45 44 43 35 35 30 32 33 24 17 17 25 25 24 26 26 26
74 67 65 68 62 59 62 56 51 37 39 39 35 33 34 34 39 26 27 36 38 32 35 30 22 21 23 27 25 26 26 25
72 66 62 66 62 62 61 58 50 39 46 39 35 33 36 34 32 22 24 37 40 32 27 31 24 22 20 26 28 27 26 27
65 69 62 60 67 65 59 58 50 42 47 43 36 37 38 37 27 20 23 34 30 28 23 24 26 21 20 20 27 28 28 30
60 62 67 63 62 63 61 59 54 50 45 41 37 37 41 37 26 20 21 28 28 27 31 28 24 24 21 22 22 23 27 28
58 58 63 60 66 59 61 61 53 53 48 44 43 40 44 39 30 28 27 31 31 26 30 33 30 25 23 23 22 21 25 28
57 61 66 53 62 58 59 60 55 52 51 44 48 46 45 47 39 38 36 33 30 25 27 26 29 30 28 28 22 22 21 26
59 61 66 51 62 60 57 59 57 55 55 50 53 49 44 45 46 43 41 35 28 23 26 26 26 25 27 22 20 19 27 28
63 62 62 55 60 61 62 61 58 57 55 54 59 54 47 45 44 43 39 32 28 27 23 27 27 28 27 28 27 27 25 33
63 64 64 51 59 62 56 61 60 57 57 61 63 61 54 49 43 44 42 35 29 29 26 25 30 32 33 32 32 34 33 33
57 63 62 69 59 68 56 63 65 60 59 65 63 64 57 51 45 44 41 39 34 31 29 29 32 38 40 40 41 42 43 43
55 63 58 67 64 67 55 56 62 63 62 64 66 64 63 57 50 45 44 43 42 38 36 34 32 32 33 33 35 38 44 47
53 63 65 66 61 68 68 46 64 69 73 70 69 68 65 62 55 51 52 51 47 46 45 42 42 39 34 31 28 27 30 32
48 48 56 59 68 61 66 72 62 73 79 76 75 70 69 67 61 59 61 53 51 50 48 46 43 40 36 35 34 33 31 31

GFSFLT2_500_spd_048.txt.gz
Wind_Speed
64 63 62 60 60 54 55 55 54 56 57 46 37 38 39 34 37 38 32 27 21 19 16 13 18 21 25 26 28 28 27 28
67 66 64 63 57 56 60 59 57 59 54 48 37 38 43 40 35 38 35 31 29 25 19 14 18 23 26 28 29 29 31 31
69 67 64 63 65 61 55 56 58 58 51 40 39 34 39 41 38 39 38 35 29 27 23 20 20 25 27 29 29 30 29 30
71 65 63 67 63 64 65 63 60 58 49 40 39 36 37 38 38 39 40 36 27 26 29 23 21 23 27 30 28 28 29 29
64 64 62 66 67 64 65 62 62 56 50 43 38 39 41 41 40 41 38 38 32 27 27 26 23 19 27 29 30 29 31 29
60 65 70 68 70 66 67 64 61 60 43 36 38 38 41 42 42 45 40 40 39 38 36 30 26 19 23 29 31 31 30 31
54 61 68 64 68 66 69 63 62 56 39 33 37 33 43 44 45 45 44 46 46 41 33 37 32 25 22 27 31 32 31 29
53 53 64 67 67 67 67 64 62 51 40 39 39 40 41 47 52 50 48 49 50 44 36 36 29 26 22 26 30 31 31 31
44 50 63 64 65 69 67 64 61 49 40 42 44 43 42 38 43 48 43 28 33 47 43 42 35 31 26 27 30 31 31 34
45 43 65 64 64 67 69 66 59 50 43 47 46 42 38 33 37 31 25 27 32 34 45 35 36 32 28 26 29 33 33 32
49 45 61 65 65 63 68 67 60 50 46 51 51 48 40 39 36 33 29 29 35 38 44 35 27 26 27 28 30 33 33 29
44 43 46 66 66 62 66 64 60 51 50 54 51 49 45 44 41 34 25 25 36 42 28 29 29 29 27 27 27 29 31 26
44 40 40 53 68 58 61 58 60 51 54 52 56 53 49 49 45 37 26 25 28 31 32 33 32 33 30 30 24 24 21 22
38 48 47 46 65 61 60 57 53 54 56 55 58 55 52 52 48 45 39 37 37 37 36 35 37 38 34 32 32 28 26 26
45 48 52 51 56 65 55 54 50 54 54 58 59 60 55 53 52 49 47 45 41 37 32 34 36 37 34 31 28 31 26 24
46 50 50 49 50 58 55 48 50 48 56 55 59 62 61 57 57 54 51 48 44 39 32 37 35 36 34 32 29 28 26 25
28 51 56 50 46 50 50 50 54 52 53 56 57 63 63 59 58 57 52 49 47 42 31 34 38 36 36 36 35 35 34 34
34 40 51 49 44 48 44 42 50 52 54 55 60 62 63 62 60 56 53 48 46 42 38 34 34 35 39 41 43 41 41 39
29 42 49 49 47 39 60 53 50 50 56 57 60 62 64 64 64 62 54 52 48 42 38 37 35 32 34 41 42 47 46 46

GFSFLT2_500_spd_051.txt.gz
Wind_Speed
64 65 62 60 64 56 57 55 56 62 62 51 44 47 48 47 43 37 33 32 29 25 25 24 21 25 34 33 33 31 31 31
59 66 65 61 61 65 61 61 63 66 62 54 42 49 47 48 47 38 36 34 32 29 27 27 25 28 34 33 34 35 34 33
56 60 63 65 67 68 64 62 64 66 63 50 45 40 45 49 50 40 40 37 34 32 30 28 28 31 32 32 33 34 35 35
55 53 59 66 67 66 69 68 66 66 64 49 41 41 46 49 49 45 42 38 35 32 31 31 31 31 31 33 33 33 34 35
45 48 51 64 69 69 70 72 72 67 63 49 42 42 49 52 52 51 48 45 42 38 35 33 29 31 33 32 32 34 35 34
53 48 55 59 67 67 70 72 71 69 60 49 46 42 44 51 56 54 49 51 48 43 38 36 32 27 32 33 34 33 34 34
54 52 55 60 67 71 72 71 73 67 62 48 44 46 44 50 57 58 53 56 52 46 39 36 35 30 29 33 35 34 33 32
54 54 56 59 65 71 72 73 74 70 63 49 42 45 48 54 59 62 60 59 54 52 46 40 34 29 27 27 33 34 33 31
47 49 56 58 60 66 72 72 72 67 59 47 43 44 48 51 57 61 60 60 57 55 52 45 39 35 33 28 31 34 34 35
34 46 55 49 57 63 68 68 69 65 53 46 43 47 47 48 56 59 59 58 58 56 55 46 39 41 34 30 30 31 34 35
35 41 51 45 59 63 70 66 66 62 53 46 39 45 44 45 50 52 53 55 57 51 50 47 44 38 34 32 32 28 33 32
33 39 39 47 56 58 67 63 59 59 51 51 40 50 47 42 42 44 50 53 39 37 40 52 53 44 37 35 34 25 26 29
35 43 35 36 54 57 58 60 57 58 52 53 45 50 46 38 34 32 32 32 35 33 42 39 51 46 41 36 28 26 23 28
32 41 36 40 56 59 56 59 57 57 53 50 48 53 46 44 37 37 36 32 34 32 44 47 46 42 41 37 32 26 25 27
23 33 38 32 54 59 57 56 52 53 55 49 49 56 51 46 42 41 36 32 33 38 45 49 44 45 43 42 37 30 29 27
20 34 30 22 41 57 54 52 50 49 55 50 49 54 55 51 47 45 43 42 41 40 39 43 43 43 40 40 40 35 31 31
20 29 30 22 50 45 54 52 43 46 49 51 48 53 55 57 53 52 51 50 48 46 46 46 43 39 42 43 42 38 31 33
28 27 33 28 39 28 41 53 49 46 48 44 47 49 51 58 58 55 51 53 53 51 51 47 44 44 45 45 42 40 38 35
22 31 27 36 31 32 32 44 50 46 45 42 46 49 48 54 59 59 54 49 49 50 51 51 47 50 49 49 53 46 45 43

GFSFLT2_500_spd_054.txt.gz
Wind_Speed
55 62 63 61 64 56 48 48 51 48 56 57 54 52 50 47 46 45 41 35 30 27 27 27 28 29 33 37 37 34 32 33
50 52 60 62 58 61 62 57 63 46 51 52 57 46 53 57 52 47 42 39 36 32 31 28 27 27 34 38 38 37 36 35
49 49 53 63 65 53 57 67 65 58 40 55 55 47 50 55 55 46 45 41 38 33 31 27 29 30 31 36 39 37 36 37
51 51 51 60 51 65 48 63 69 49 35 31 55 49 47 52 56 52 50 42 40 37 36 33 29 31 31 36 40 37 36 36
53 52 51 50 54 64 58 49 57 64 58 47 59 47 45 49 52 54 54 50 47 46 42 36 34 32 33 35 37 38 39 37
53 41 50 55 58 66 70 66 66 52 46 52 52 47 45 46 50 57 62 57 49 47 44 42 37 31 31 34 37 38 38 39
54 50 50 57 57 64 69 76 74 52 46 42 57 48 46 44 54 58 59 61 53 49 47 44 40 36 33 32 36 38 38 38
47 48 51 54 56 58 67 74 78 75 67 39 58 55 50 48 58 61 62 62 57 53 51 46 40 37 32 30 30 35 34 35
42 42 52 58 59 55 62 67 74 78 68 57 62 55 49 50 47 61 64 65 62 58 55 50 44 37 34 34 29 31 34 34
39 38 48 56 52 55 58 63 66 77 70 64 61 57 49 47 51 53 64 65 64 60 57 53 47 41 38 35 29 26 30 34
37 32 40 45 52 59 57 60 70 76 73 68 59 57 53 51 48 53 61 64 68 66 57 54 53 43 41 36 35 30 29 28
30 33 35 44 46 58 55 59 64 69 71 63 58 57 53 53 51 48 56 61 65 66 61 58 57 49 47 39 39 33 29 22
27 32 32 34 43 50 54 57 58 62 64 58 59 58 56 52 52 48 47 52 60 61 61 59 57 55 51 44 39 36 34 30
27 36 40 35 32 52 50 54 52 55 54 57 59 54 52 44 48 44 43 43 53 60 59 55 55 54 51 46 45 40 40 32
29 33 27 24 29 40 46 42 44 50 50 55 59 58 49 47 48 43 40 39 45 47 48 50 52 56 58 54 50 45 42 32
8 13 15 6 9 41 47 43 40 41 51 56 59 53 47 49 47 41 42 38 37 40 44 50 48 51 56 58 54 48 41 36
9 9 18 15 14 43 49 45 45 40 52 52 55 46 49 51 46 48 42 40 41 42 43 47 46 50 49 59 55 47 45 43
10 11 8 17 7 51 52 46 42 45 50 51 50 48 51 53 52 50 47 47 47 46 45 45 48 50 51 57 52 48 46 38
7 10 12 13 20 48 58 38 47 44 49 44 42 47 46 53 56 54 51 50 50 50 51 53 55 56 55 53 49 50 49 44

GFSFLT2_500_spd_057.txt.gz
Wind_Speed
52 55 52 54 58 54 38 34 38 33 49 46 46 40 36 29 34 36 38 37 32 27 26 22 22 24 27 34 35 32 31 29
45 52 53 53 47 51 51 45 44 35 34 35 47 52 56 45 39 42 47 38 39 32 28 23 23 24 25 30 35 36 35 34
43 47 47 48 54 52 40 51 45 36 37 31 30 40 54 55 54 47 33 38 41 34 30 28 28 27 27 28 34 38 37 35
45 43 47 46 36 46 47 43 51 41 36 27 25 30 38 50 48 50 49 42 42 39 34 34 30 29 26 27 28 36 38 37
51 51 53 53 51 50 44 47 46 47 42 23 30 38 28 36 48 50 52 45 45 44 42 36 34 32 27 26 25 31 39 39
51 32 41 47 52 48 44 48 54 47 41 38 24 26 31 41 40 46 55 57 45 50 47 41 40 35 30 26 27 28 35 39
54 52 54 57 56 54 53 54 62 57 39 45 37 31 32 39 44 53 53 54 53 47 53 47 43 40 35 33 28 27 29 34
51 51 59 58 63 62 62 60 65 73 60 47 47 42 31 41 45 51 60 64 66 65 56 50 48 43 38 34 28 25 28 30
39 36 47 57 56 57 59 61 62 67 68 61 54 42 46 43 46 54 56 64 61 58 58 55 52 47 42 36 33 29 23 30
35 31 35 44 49 59 58 63 64 64 69 66 55 49 37 50 61 48 45 55 56 59 59 59 53 50 46 40 35 30 27 25
36 39 33 33 36 55 66 67 60 56 66 70 59 64 52 60 56 54 46 48 57 60 61 60 60 50 48 43 37 34 31 26
39 41 36 23 43 46 59 64 56 62 58 65 72 72 60 60 57 55 54 48 52 59 60 62 60 54 51 47 41 35 30 27
31 41 35 42 42 46 55 61 64 59 63 68 73 79 78 72 58 52 51 54 48 54 60 63 61 57 54 52 46 33 36 33
22 31 38 39 30 40 48 56 56 55 56 58 64 74 69 68 59 51 51 47 50 53 54 59 62 62 56 55 46 43 42 38
21 24 29 32 33 24 38 35 55 50 53 52 54 62 67 68 60 53 50 51 47 49 52 57 62 65 60 58 58 49 45 42
9 9 10 19 27 19 36 48 37 46 51 44 48 56 67 66 59 49 49 49 47 47 51 56 59 64 65 65 60 58 51 50
7 5 6 6 10 16 15 43 44 42 44 44 47 54 63 61 57 49 47 47 45 45 48 53 55 57 58 57 58 57 55 56
4 5 3 6 11 12 8 36 44 42 42 45 47 54 59 59 56 50 46 44 45 45 48 50 52 54 52 55 56 58 57 58
4 4 4 7 9 8 9 39 47 49 43 49 50 53 58 56 55 48 47 46 47 47 47 45 48 47 47 54 55 57 61 59

GFSFLT2_500_spd_060.txt.gz
Wind_Speed
23 37 46 46 43 47 45 33 40 29 29 38 37 39 25 30 32 42 34 40 29 22 20 19 20 17 16 25 28 27 26 25
31 26 42 44 46 35 45 47 47 29 29 25 28 37 40 50 42 40 41 57 33 32 26 23 20 19 18 21 29 31 31 30
43 41 41 37 49 51 35 36 54 40 36 25 20 26 29 51 54 55 39 47 47 42 31 26 24 21 18 18 23 29 31 30
45 47 35 31 42 36 46 43 43 42 37 27 20 22 35 36 36 43 48 43 26 32 25 29 24 21 19 20 18 24 31 34
46 45 46 38 45 43 39 46 46 39 38 37 19 25 19 30 31 44 44 35 48 41 40 22 28 23 21 19 19 22 23 32
53 40 41 41 38 41 44 36 41 50 35 43 22 25 29 30 29 37 36 40 45 42 34 30 34 28 25 22 21 19 19 22
58 56 49 53 55 54 45 51 44 47 44 50 33 44 43 44 40 38 40 47 45 45 47 39 38 31 32 28 25 22 18 16
53 59 55 61 61 61 60 57 55 47 59 60 47 44 43 43 46 45 42 39 39 49 49 51 37 37 37 34 31 25 17 17
39 46 52 63 66 64 65 61 61 64 66 60 59 53 43 41 42 46 50 52 51 55 48 49 45 42 41 36 34 29 20 18
30 32 40 45 58 57 61 64 63 64 60 68 62 58 60 46 46 47 55 58 59 58 57 66 51 39 27 35 37 33 25 22
31 35 33 36 35 42 45 61 64 68 65 64 74 63 60 56 55 46 49 52 54 57 59 59 50 47 45 46 40 36 29 25
32 33 33 33 37 44 50 61 66 70 67 64 76 76 63 70 64 55 43 42 51 53 59 59 57 53 51 46 39 34 29 26
27 35 35 36 40 37 46 54 60 65 67 65 74 86 86 67 59 72 53 51 59 51 53 58 57 54 52 49 43 35 34 36
18 30 37 42 41 39 46 54 60 62 66 68 68 78 84 80 62 69 46 31 49 48 52 55 57 54 52 52 46 43 39 41
22 17 24 28 36 49 42 53 47 56 62 67 69 71 79 74 84 79 41 43 49 51 49 49 52 55 52 51 52 49 47 44
19 25 27 25 28 36 47 53 47 53 57 62 67 64 68 77 87 71 79 60 53 53 54 52 49 53 53 52 53 53 52 47
13 13 14 12 16 30 38 42 42 44 48 52 57 62 57 63 68 84 71 74 54 53 52 46 50 50 53 55 57 58 58 53
11 13 13 11 10 14 24 27 26 40 38 44 50 50 57 53 55 63 78 82 69 56 55 52 47 50 51 54 57 60 60 59
12 11 13 11 11 11 8 14 19 37 46 35 49 49 43 46 49 52 66 69 62 58 57 55 52 48 49 51 54 55 57 61

GFSFLT2_500_spd_063.txt.gz
Wind_Speed
40 40 43 38 42 41 43 43 43 39 36 23 16 24 31 30 32 25 28 36 36 29 22 18 13 12 9 16 22 23 22 22
39 43 45 44 37 39 44 47 48 46 39 29 6 6 21 31 36 34 27 35 40 37 29 25 19 17 13 15 20 26 27 25
34 36 33 35 39 45 44 47 44 47 45 23 6 7 20 29 26 26 30 38 35 38 25 20 26 25 17 15 18 21 25 27
42 45 47 47 46 41 48 49 50 48 52 31 27 10 14 27 25 25 26 30 38 37 44 41 42 26 19 17 15 19 23 29
39 39 45 51 50 46 45 54 53 50 53 43 34 28 11 16 31 25 23 25 32 36 44 50 36 29 20 17 15 16 18 22
44 43 49 53 53 49 48 49 55 54 54 43 47 37 28 13 31 34 28 27 32 31 38 21 25 27 23 17 12 15 14 18
48 50 48 54 62 56 56 58 57 58 61 42 55 48 37 29 31 36 39 33 30 34 35 33 34 35 33 23 15 14 14 10
39 49 53 57 58 61 62 63 61 60 63 51 64 61 47 46 37 36 36 45 31 37 33 30 30 33 36 27 20 19 16 15
43 35 48 59 60 59 62 63 59 55 56 60 72 70 56 53 53 47 37 28 35 35 35 39 34 40 59 40 33 28 21 19
31 35 38 52 57 64 65 67 63 64 62 57 74 72 66 63 59 57 54 50 42 46 46 45 30 36 49 48 38 35 31 23
32 34 32 31 46 60 69 69 68 70 67 60 70 78 76 61 62 64 65 59 50 47 48 43 44 50 42 38 36 33 27 22
25 30 31 31 36 44 59 71 71 72 71 65 66 71 77 72 60 61 62 63 63 54 52 54 55 54 48 41 35 24 19 24
23 26 24 32 33 38 44 61 62 71 73 72 71 70 73 80 69 59 61 63 65 55 62 61 55 46 33 39 38 32 23 26
25 33 23 25 32 38 41 45 54 61 69 75 78 74 74 74 80 68 54 57 49 59 63 67 62 56 50 20 31 38 33 34
18 20 23 23 25 30 38 45 48 56 61 68 73 77 74 73 83 81 61 59 70 55 63 63 67 64 54 54 51 43 38 38
20 22 26 29 25 27 31 40 49 57 58 68 69 70 71 74 74 88 85 67 67 63 60 56 50 61 61 53 52 47 42 42
14 17 17 24 30 33 35 37 41 53 60 64 64 64 67 70 75 79 83 86 76 66 46 51 61 58 50 47 49 49 47 47
11 11 10 12 16 20 25 28 28 45 52 60 58 56 66 68 72 76 75 78 80 75 55 59 53 50 47 48 46 48 50 51
18 10 10 8 8 14 19 22 25 27 33 53 60 55 57 68 67 72 76 69 78 72 79 54 53 51 52 49 46 46 51 55

GFSFLT2_500_spd_066.txt.gz
Wind_Speed
39 40 41 40 39 39 40 40 40 36 36 25 36 28 26 27 23 23 21 17 18 22 23 23 19 17 22 24 23 23 25 24
37 39 43 44 38 38 40 42 41 38 32 22 24 26 20 15 13 14 18 22 18 24 26 20 23 22 22 26 26 27 27 25
34 37 40 43 43 46 45 44 45 43 33 29 29 24 27 28 31 31 18 7 17 22 29 28 22 21 20 18 23 27 26 26
33 36 39 40 41 47 51 47 47 44 36 35 36 28 36 34 33 29 22 14 12 17 27 34 26 27 21 16 18 24 29 29
39 41 42 43 42 44 46 50 50 49 41 43 44 41 33 36 36 33 26 22 16 11 15 28 30 36 24 23 22 25 29 31
37 46 52 48 44 46 49 47 48 54 50 46 52 50 41 36 23 34 35 29 25 23 22 28 44 48 41 30 28 23 26 29
34 38 47 54 57 54 57 55 56 54 56 52 54 56 50 42 28 38 39 33 39 31 30 37 33 41 54 42 32 26 21 22
31 33 36 48 55 57 59 60 60 60 58 55 58 57 56 50 39 34 38 42 41 34 36 25 31 40 41 42 35 29 25 22
40 39 40 41 44 57 62 67 65 63 61 58 62 59 60 56 48 38 37 42 42 44 41 34 39 35 40 34 38 34 30 28
36 39 43 44 44 48 63 70 69 68 66 61 61 65 63 61 60 50 39 44 46 43 36 41 40 34 40 42 43 40 36 32
37 43 47 44 42 45 56 71 74 75 74 69 62 67 66 65 63 63 52 48 50 49 44 44 49 41 37 40 45 44 40 33
40 42 42 38 38 41 47 67 76 75 73 70 65 68 69 72 69 67 61 56 51 52 54 40 37 35 32 40 47 56 48 39
29 29 29 28 31 32 39 47 67 76 75 72 70 71 73 69 73 71 68 58 60 59 50 54 50 48 45 34 48 57 44 58
25 25 26 28 26 28 34 35 42 64 77 79 76 77 76 72 73 78 74 71 64 65 68 61 58 59 52 42 39 42 39 36
24 21 21 26 29 32 28 34 40 44 57 79 81 82 81 76 76 78 84 77 68 77 68 68 65 58 59 56 47 50 56 46
20 20 20 25 27 30 31 32 39 46 50 58 77 83 85 82 79 77 78 88 80 73 78 73 77 71 61 62 57 52 47 51
14 15 15 19 22 23 27 34 38 43 50 57 64 73 80 84 84 82 81 80 88 84 75 80 81 65 64 69 63 56 46 46
18 21 17 17 19 18 21 27 33 38 44 56 61 65 68 77 80 84 85 82 80 89 85 80 71 63 67 57 63 62 55 48
16 16 16 20 15 17 21 25 30 30 32 34 44 63 62 70 71 77 82 83 82 84 94 90 76 81 85 68 59 67 52 56

GFSFLT2_500_spd_069.txt.gz
Wind_Speed
34 33 34 34 36 36 37 39 40 39 34 29 29 27 25 22 24 16 16 15 15 14 16 17 16 20 24 23 23 24 24 22
37 37 37 37 37 38 38 39 39 37 43 41 37 35 33 31 28 27 25 25 19 16 19 15 13 16 20 24 24 25 26 25
36 38 39 40 40 41 40 42 41 35 38 42 43 38 36 30 32 30 32 33 29 21 18 22 21 20 15 14 21 23 25 25
33 36 38 41 43 41 42 42 41 41 42 42 37 36 38 33 34 32 32 32 31 30 33 30 30 27 20 16 13 16 25 27
36 37 39 41 43 42 41 41 43 43 44 44 42 41 39 38 37 35 33 36 39 38 37 39 39 36 33 29 23 21 20 28
41 44 44 44 44 45 45 44 44 46 49 46 44 44 46 43 40 39 34 41 38 34 36 40 37 41 37 35 30 29 27 27
29 38 46 47 47 49 49 49 47 48 49 52 47 44 46 48 46 45 41 42 42 40 36 37 41 44 47 39 40 34 34 31
21 23 32 43 52 52 53 53 53 51 52 53 48 46 46 50 47 47 48 46 45 41 37 39 44 44 50 48 47 39 35 34
22 22 24 30 37 53 60 58 58 57 56 59 58 52 48 50 55 47 46 47 50 45 42 44 45 35 46 53 54 47 39 41
30 30 33 36 41 44 46 55 66 65 64 65 66 62 57 54 55 59 55 47 52 50 49 49 51 38 39 43 47 54 52 46
35 36 36 36 41 45 49 50 52 56 68 70 71 70 63 60 58 59 60 62 52 55 53 52 52 41 39 39 45 50 46 46
24 23 29 36 44 51 54 55 52 53 55 66 75 79 72 66 63 62 62 62 61 56 58 57 54 47 38 48 49 50 46 47
20 23 22 36 36 39 47 50 55 60 61 60 70 81 81 76 69 66 67 62 61 63 62 62 59 51 47 51 57 57 54 52
26 32 36 35 32 35 30 28 37 45 54 64 69 79 83 84 77 74 72 69 65 64 66 64 62 58 42 48 60 58 55 58
25 28 32 28 27 29 34 37 40 40 46 53 65 77 87 84 84 80 78 75 71 71 70 70 66 61 59 44 53 51 51 49
23 26 26 22 22 26 29 34 38 41 43 46 52 60 74 87 83 87 82 78 77 77 75 74 73 71 68 58 67 60 45 41
11 13 13 13 17 20 21 25 30 36 42 43 47 51 54 59 82 83 84 79 79 76 83 78 78 73 80 72 54 50 51 50
9 12 13 16 17 16 17 20 21 26 32 38 43 47 53 53 53 71 86 84 81 80 78 87 83 85 85 65 63 51 58 55
15 15 15 16 16 18 20 20 20 22 27 30 33 35 39 45 55 56 63 87 86 85 84 81 90 89 85 87 75 67 61 58

GFSFLT2_500_spd_072.txt.gz
Wind_Speed
34 34 32 32 32 33 35 37 34 33 32 27 27 23 23 23 15 13 19 20 20 18 19 22 22 22 22 24 29 25 21 20
35 36 35 36 35 35 35 36 34 36 35 34 31 29 29 26 25 19 20 19 21 23 24 23 20 20 22 24 26 30 26 22
36 37 37 37 38 38 38 37 37 35 37 36 34 33 32 31 28 26 23 22 22 27 26 28 28 25 23 23 25 27 28 27
34 36 37 39 39 39 39 38 39 38 37 36 34 34 34 33 34 34 32 30 28 31 31 31 32 29 26 25 25 27 27 28
33 34 35 36 37 38 39 39 41 41 41 39 38 35 34 35 34 33 34 35 37 37 37 37 35 33 29 27 27 29 32 30
35 38 39 38 38 38 38 39 41 44 43 40 36 36 38 36 36 35 34 32 42 43 41 39 36 36 35 31 31 29 30 34
40 42 42 43 42 41 41 41 42 44 43 44 42 39 36 39 41 40 38 37 36 42 41 45 43 40 38 39 36 34 32 31
33 38 40 42 41 42 43 44 44 46 46 46 46 43 40 37 47 45 44 43 41 43 42 43 40 42 39 38 41 40 36 34
24 27 31 34 39 42 44 46 46 48 49 50 49 49 46 43 45 53 50 51 49 46 49 45 43 43 39 40 45 48 46 42
21 23 27 29 29 32 35 40 47 52 52 55 55 53 52 50 47 49 57 58 56 53 50 54 49 47 46 50 46 55 54 50
27 28 30 30 31 33 34 37 41 45 52 60 62 59 57 56 54 52 54 59 62 57 57 56 56 51 49 52 48 52 57 56
34 33 33 33 30 31 34 36 40 46 52 53 59 64 66 65 62 61 59 57 64 64 60 61 59 55 52 54 49 43 43 53
28 29 26 24 25 27 31 35 37 44 55 60 62 64 64 67 69 67 66 65 64 67 68 63 60 59 54 56 56 47 42 47
26 24 24 21 25 29 33 32 32 33 47 61 66 67 69 69 69 70 72 72 69 68 71 71 68 62 61 58 57 49 47 42
18 19 22 25 30 35 35 35 35 34 31 35 44 58 70 74 75 71 72 75 77 73 70 72 72 69 67 65 60 56 53 50
15 19 24 26 29 32 33 36 36 36 33 34 38 43 46 54 63 73 77 76 80 81 77 72 74 71 68 71 67 64 61 57
7 10 12 12 15 15 16 21 27 31 32 34 39 42 43 45 48 54 64 76 81 83 83 77 75 76 73 74 73 71 66 57
16 17 19 18 17 17 20 21 21 20 23 27 31 35 39 43 45 48 47 54 69 83 86 85 79 80 81 78 80 77 66 74
26 25 26 26 27 27 25 23 23 22 23 27 28 30 33 37 41 42 46 48 52 60 85 89 89 84 84 86 82 83 82 69

GFSFLT2_500_spd_075.txt.gz
Wind_Speed
38 35 34 35 37 36 35 31 27 29 28 28 27 27 23 22 17 15 21 26 25 23 21 22 23 22 25 27 29 27 25 22
39 38 37 36 34 36 35 33 35 34 31 30 26 21 27 25 18 17 23 21 20 22 23 24 26 27 28 29 30 32 28 27
39 40 39 39 38 37 35 33 34 32 33 31 29 26 26 28 25 20 23 20 23 25 26 28 29 29 30 29 29 34 32 28
36 39 40 40 39 39 38 37 36 33 30 28 28 28 28 31 31 26 23 27 18 19 26 30 30 28 27 30 30 31 35 34
33 34 37 40 41 40 40 39 39 36 34 30 28 29 29 32 34 34 32 30 29 23 25 26 29 30 29 29 29 33 33 36
32 32 32 35 37 38 39 40 38 39 35 33 32 32 31 31 33 35 37 35 36 34 30 30 30 32 32 30 29 29 35 36
36 38 39 40 39 40 40 41 41 41 40 38 37 36 35 36 35 35 35 36 36 36 40 38 35 34 35 35 34 30 30 35
39 39 39 39 39 39 39 40 42 42 40 40 39 39 39 39 38 39 38 38 36 37 37 45 43 41 40 39 36 36 42 36
34 35 35 35 35 36 38 38 39 40 40 40 40 40 40 40 43 44 43 43 43 42 41 45 48 48 45 44 45 46 51 43
30 32 35 34 35 37 39 41 41 41 42 42 41 41 42 42 42 44 47 48 48 46 46 47 49 50 49 48 47 48 43 41
27 29 31 31 30 31 32 34 37 40 44 46 47 47 47 47 48 48 48 51 54 54 52 52 52 53 54 53 49 47 48 42
30 30 30 30 31 32 32 33 34 36 38 40 42 46 51 54 54 55 55 54 56 63 61 59 58 58 57 57 58 57 53 51
34 36 37 36 35 34 35 34 37 39 40 42 44 47 50 54 56 57 60 62 61 62 65 71 67 65 64 61 61 63 61 58
29 32 35 35 34 35 33 34 35 37 39 42 47 50 52 57 60 62 63 63 66 67 67 67 72 75 72 67 64 64 65 63
24 25 27 30 32 31 32 33 33 35 36 37 37 39 43 45 59 67 69 70 71 71 72 73 73 72 78 76 71 69 67 66
16 17 20 22 24 26 28 32 36 39 41 41 42 42 40 40 40 44 64 78 77 78 77 75 77 78 76 80 79 75 73 69
7 8 10 11 13 15 17 17 19 20 21 26 27 31 36 40 42 44 46 51 69 84 84 83 81 80 82 81 82 82 79 76
18 17 15 15 17 18 19 20 21 23 22 20 20 22 25 27 30 35 43 49 53 54 76 90 88 85 83 85 85 82 84 82
25 28 27 26 25 27 29 29 29 30 31 30 30 29 30 31 33 35 33 37 46 52 53 62 86 94 90 87 87 87 85 86

GFSFLT2_500_spd_081.txt.gz
Wind_Speed
47 48 46 45 41 26 15 17 21 29 44 43 40 27 29 27 28 16 18 21 19 22 21 24 21 22 22 23 25 26 25 21
44 51 50 44 37 32 28 23 27 32 35 39 36 31 30 30 28 24 22 23 16 25 25 25 26 27 27 27 27 29 29 25
46 46 45 44 42 34 27 20 30 23 26 41 34 34 31 29 29 30 28 26 28 30 26 29 29 30 30 30 29 30 30 28
42 45 48 44 33 39 32 31 27 27 35 35 27 32 35 33 33 32 28 32 31 37 31 28 30 32 32 31 29 29 31 30
34 46 45 45 47 45 31 25 31 30 34 27 31 31 33 34 33 30 30 26 30 27 32 34 30 30 29 29 29 27 27 29
17 32 39 44 46 46 45 31 20 32 37 27 33 32 34 32 32 29 34 30 29 33 25 33 32 31 28 26 26 24 23 25
35 35 30 37 44 45 43 33 29 32 45 45 39 33 34 35 36 34 33 33 32 32 30 32 35 29 25 27 27 28 26 26
37 38 41 42 43 47 46 49 38 36 42 46 42 32 34 36 39 41 40 40 39 36 30 37 24 22 21 21 23 28 28 29
25 39 40 42 43 42 47 47 45 37 53 39 39 45 38 38 38 41 45 46 45 44 40 38 37 34 34 32 30 27 27 32
26 38 41 37 42 43 46 49 50 54 56 49 47 42 41 43 43 43 44 46 49 49 47 44 44 43 43 42 39 39 37 34
39 38 34 44 41 41 41 46 43 50 52 49 46 46 47 47 45 45 47 47 49 49 50 50 49 49 50 48 46 45 43 42
25 30 26 37 47 39 36 43 42 46 47 44 46 47 51 46 47 47 48 49 50 50 51 52 52 52 51 50 49 46 47 46
26 29 34 34 28 30 38 44 46 45 47 45 48 52 51 49 50 50 50 51 51 52 53 53 53 54 54 54 53 52 50 50
25 27 31 33 27 31 34 36 42 41 44 44 46 45 50 50 49 52 55 55 56 56 57 56 57 57 58 58 57 56 56 56
28 32 29 33 31 33 35 37 38 38 38 39 39 40 43 44 42 46 50 53 55 56 58 60 60 60 61 62 62 62 62 61
21 29 31 35 35 37 39 41 43 43 43 44 43 43 43 45 44 44 45 46 48 50 52 54 56 60 62 62 66 67 66 67
18 18 20 27 32 35 38 41 44 46 48 47 47 46 46 47 47 47 48 48 49 50 52 55 57 59 61 63 65 66 69 72
26 24 23 22 22 28 32 35 37 39 42 44 45 45 45 47 49 49 50 51 49 49 49 49 51 54 58 62 64 68 72 73
31 28 29 29 25 23 25 28 31 32 34 36 37 38 39 40 42 43 45 48 51 52 52 51 53 53 51 55 61 64 67 71

GFSFLT2_500_spd_084.txt.gz
Wind_Speed
34 37 31 33 44 31 21 17 18 26 36 44 43 28 23 20 20 24 17 12 17 17 17 20 16 19 21 22 23 22 20 17
31 34 42 36 39 39 33 28 23 31 36 43 38 32 27 28 29 26 19 18 19 17 22 24 22 19 22 24 23 25 25 22
35 48 50 45 42 41 31 21 21 24 34 46 45 32 33 33 30 30 28 26 24 27 34 34 28 24 23 25 25 26 27 27
39 39 45 49 37 42 36 36 29 35 35 43 34 31 27 32 33 30 30 29 27 32 26 34 30 26 22 25 26 26 26 25
23 34 41 55 49 29 33 27 32 30 40 29 30 32 22 29 35 33 31 31 30 25 23 24 29 28 34 26 19 19 22 27
20 27 38 50 50 44 42 31 27 39 36 31 24 21 26 26 36 36 34 32 28 28 28 33 26 26 33 25 29 25 33 33
24 16 23 41 46 37 50 41 32 30 36 27 29 26 23 25 33 38 38 36 31 29 31 33 37 35 39 36 31 29 28 24
16 18 28 23 32 36 45 45 26 23 35 42 41 37 34 28 31 36 38 39 36 35 36 37 34 42 41 32 28 32 32 29
35 31 35 38 39 46 46 47 33 29 39 46 38 42 42 39 33 39 42 43 43 41 42 45 38 36 30 28 28 32 34 34
29 18 37 32 40 42 41 44 40 38 51 41 38 37 41 44 41 40 44 45 45 46 45 44 41 36 37 39 20 20 22 17
38 21 18 40 39 30 30 29 44 54 52 58 58 51 42 34 41 43 40 43 46 47 47 47 45 40 38 38 42 39 36 33
41 40 26 24 42 43 38 27 44 47 56 59 56 53 51 47 46 43 44 46 47 47 47 47 49 48 44 44 44 45 45 43
25 35 38 32 30 34 37 31 43 43 47 52 55 55 52 47 48 49 49 49 50 50 51 50 50 50 50 48 46 47 47 47
21 22 25 41 36 35 37 41 48 48 47 52 47 48 50 50 47 47 49 49 50 51 51 52 51 52 52 52 50 49 48 48
29 32 32 35 32 31 29 30 33 37 43 44 42 46 49 51 51 51 50 49 52 53 53 53 53 53 54 53 53 52 52 51
29 31 32 33 27 26 32 34 36 38 39 39 39 40 48 50 49 51 50 49 52 53 55 56 56 56 57 57 57 57 57 58
22 26 27 30 34 34 34 36 36 39 41 41 41 40 41 44 44 43 46 46 48 49 51 52 53 53 55 57 57 58 58 59
29 30 26 25 23 24 27 34 37 37 40 42 45 44 45 45 47 47 45 46 47 49 49 50 51 52 53 53 53 55 57 58
33 35 30 30 28 28 27 26 27 32 36 39 41 41 45 47 49 50 49 49 50 50 50 51 52 53 54 55 55 56 56 57

GFSFLT2_500_spd_087.txt.gz
Wind_Speed
43 38 44 46 54 41 17 18 17 24 30 32 29 29 27 26 13 14 15 14 32 24 23 22 19 19 20 22 23 22 20 17
39 33 40 43 46 41 32 28 18 22 27 33 30 29 25 20 21 18 15 8 7 16 25 24 25 22 24 24 25 26 24 22
30 32 26 40 48 48 39 34 31 29 26 29 35 32 33 27 22 20 17 18 18 22 24 20 29 27 24 24 28 27 27 26
40 36 32 41 46 51 47 38 28 29 31 35 29 27 27 27 27 26 21 20 20 19 17 23 32 32 27 23 28 28 29 29
41 40 45 49 48 41 51 41 39 34 37 32 37 23 22 24 26 24 24 24 24 23 22 27 32 25 33 41 30 20 20 21
42 38 40 48 46 49 45 49 42 41 35 33 31 33 23 26 27 25 27 28 27 24 23 27 20 17 29 25 31 20 20 21
47 45 43 39 44 42 43 48 42 45 40 36 29 23 26 22 28 28 29 30 29 26 26 21 23 27 32 23 28 40 26 21
42 35 38 34 38 44 46 46 46 47 39 17 27 24 28 27 24 23 25 29 32 33 31 28 26 27 33 29 31 25 27 24
39 30 28 25 22 37 35 42 54 53 49 38 21 23 25 27 25 22 23 27 30 33 33 34 32 31 32 31 28 32 35 29
23 37 32 41 34 44 34 37 57 55 57 50 33 26 27 28 30 29 27 26 30 33 34 33 33 34 34 32 33 29 37 38
27 29 33 31 35 40 37 30 47 53 58 54 36 34 29 29 31 32 33 34 32 34 39 40 39 39 39 39 35 34 30 26
30 32 37 34 37 36 25 34 39 50 56 58 56 43 40 34 27 23 28 32 39 35 38 41 43 42 41 38 37 36 36 40
43 34 38 38 43 37 30 32 37 40 47 55 60 58 57 54 46 43 43 43 42 39 41 43 44 43 42 39 39 38 38 39
29 54 51 59 48 33 31 37 47 48 47 48 54 57 57 57 58 54 52 51 51 50 48 47 48 49 47 45 44 42 41 40
22 24 30 41 50 52 31 38 41 44 47 45 45 46 44 48 50 51 51 50 53 53 52 50 50 50 50 48 47 45 43 43
21 24 27 26 26 28 44 43 38 39 42 45 47 46 47 48 49 49 48 49 51 52 52 50 50 49 49 49 49 49 48 47
22 26 30 29 29 27 29 32 34 39 41 42 38 39 39 40 43 46 46 48 50 51 52 51 53 52 52 52 51 51 51 51
28 29 30 28 24 22 26 31 34 36 37 41 42 41 38 38 42 41 40 43 44 46 48 49 50 51 51 51 52 53 53 53
32 34 34 34 32 29 27 27 27 27 32 36 41 41 41 41 44 45 44 44 44 44 46 46 46 48 49 50 50 50 51 52

GFSFLT2_500_spd_090.txt.gz
Wind_Speed
40 42 44 48 47 38 34 28 28 23 19 14 15 14 15 9 5 13 8 15 17 30 27 25 23 21 24 25 25 25 23 19
41 40 42 47 49 40 39 36 25 21 18 23 24 22 22 12 8 7 9 16 20 32 33 27 21 23 23 25 27 29 27 24
45 43 43 45 54 50 44 38 21 19 25 22 23 21 22 19 16 13 12 12 7 24 35 29 24 26 25 27 27 29 31 29
48 46 43 41 44 50 47 38 30 31 32 24 23 23 23 24 21 18 19 13 10 13 15 20 32 14 33 31 27 29 27 29
40 41 35 36 43 46 49 49 39 37 36 31 28 21 23 26 24 23 21 17 15 16 18 19 24 30 31 35 28 27 28 27
43 46 44 42 48 50 51 56 47 46 45 37 34 29 23 22 24 24 22 18 17 19 19 20 24 25 20 22 29 37 30 30
43 46 47 49 49 50 51 54 53 50 50 43 37 37 26 25 25 22 21 22 21 22 22 20 21 21 15 14 24 17 22 23
39 46 49 47 48 49 46 46 49 54 55 47 40 33 30 21 21 21 24 25 25 25 26 24 21 19 15 23 23 26 23 21
46 45 49 46 38 44 43 45 49 54 60 53 43 30 23 24 22 21 22 24 23 23 26 27 26 23 21 18 22 31 27 22
32 50 48 42 38 37 43 43 44 48 51 59 51 34 21 27 26 23 22 20 21 23 23 23 24 23 24 26 27 25 22 21
38 42 47 43 42 37 40 43 49 46 44 54 56 44 35 26 27 29 28 27 27 26 25 26 27 27 28 28 28 25 24 22
32 27 46 45 36 36 42 39 48 52 55 53 47 46 39 33 33 35 32 31 32 35 35 34 32 31 31 32 33 32 27 27
28 34 35 40 41 46 45 44 43 42 40 41 48 51 40 33 35 40 34 28 28 30 31 31 30 33 32 33 35 34 34 33
24 33 35 38 33 32 36 40 41 42 40 36 40 44 47 42 41 40 40 39 38 37 40 40 39 38 36 37 38 39 39 39
16 18 35 42 34 26 41 40 38 40 43 40 42 40 40 39 37 41 39 40 43 46 48 48 47 47 46 45 44 43 43 41
18 19 22 22 23 42 40 31 40 47 48 47 47 53 50 45 44 45 46 48 52 55 54 54 52 51 50 49 47 46 45 45
17 21 23 24 22 21 26 36 47 49 49 45 49 48 49 45 46 47 47 49 49 46 46 47 49 48 48 48 48 47 46 46
25 25 23 20 21 23 25 28 31 35 37 42 50 47 46 45 41 38 40 42 44 45 47 48 48 47 47 47 48 48 48 47
26 30 33 33 30 25 25 31 34 38 40 42 43 43 44 43 43 42 41 42 42 42 42 42 44 45 45 46 47 47 47 47

GFSFLT2_500_spd_093.txt.gz
Wind_Speed
41 43 45 43 49 43 40 37 37 28 20 22 21 18 15 10 6 13 8 13 18 15 13 24 23 20 20 21 23 25 24 21
41 42 44 45 44 46 48 41 38 34 26 28 24 19 16 9 8 10 10 11 13 12 18 22 19 21 21 24 25 27 26 26
42 41 42 44 45 49 47 45 39 33 34 26 26 24 18 14 12 12 10 11 10 11 16 23 23 26 25 25 25 25 25 26
44 42 43 44 46 47 52 45 42 39 34 38 28 23 20 21 24 20 18 16 9 9 20 32 35 38 27 22 26 26 28 28
41 43 45 44 48 48 51 49 44 42 34 31 27 22 19 22 26 26 23 21 15 13 18 21 36 34 25 34 31 29 30 31
37 46 49 47 48 47 50 52 51 47 44 33 28 22 21 20 26 26 26 25 18 16 18 19 20 26 24 26 35 29 38 34
39 41 46 49 47 47 49 51 53 52 49 45 36 32 31 24 16 25 25 24 23 18 17 15 20 24 17 16 17 21 37 36
39 41 46 43 43 46 48 49 52 53 54 51 53 45 38 34 27 22 23 25 23 19 20 20 19 22 23 14 16 27 22 29
38 40 46 47 43 45 46 49 51 52 50 53 54 48 40 35 31 31 26 28 26 24 22 23 24 22 21 19 15 17 24 23
39 45 39 50 48 47 50 47 46 47 48 51 53 49 44 40 32 28 25 26 28 27 24 21 23 23 24 23 21 22 25 21
40 46 43 44 51 47 49 48 49 46 48 48 48 51 49 48 34 31 27 29 29 27 24 22 21 23 20 20 20 21 23 22
23 39 48 35 54 47 39 50 55 51 40 39 48 46 41 33 36 35 27 27 31 29 26 24 24 24 24 25 25 24 21 21
34 33 42 42 47 46 47 42 39 39 39 41 42 45 43 34 34 34 37 36 35 33 34 33 33 33 33 30 29 30 28 26
19 25 33 23 35 49 49 43 41 40 38 42 43 30 31 33 34 38 43 42 41 41 41 41 41 34 31 29 28 29 28 28
14 16 19 23 25 30 28 37 43 41 40 36 36 37 34 34 40 42 45 45 49 44 47 40 38 35 35 37 39 39 38 38
15 14 14 15 19 26 28 30 36 40 36 36 40 35 32 36 46 47 38 38 40 43 42 45 46 46 45 49 52 52 50 45
13 13 14 16 15 16 21 36 33 42 42 41 40 42 43 41 39 40 45 49 51 55 53 49 51 49 55 55 55 53 51 49
20 20 18 15 18 19 21 26 30 43 48 48 48 50 52 48 48 48 49 51 52 52 53 54 55 55 53 53 53 52 51 48
21 24 25 27 25 22 22 27 31 31 34 40 46 49 51 50 50 49 49 48 46 47 48 50 53 54 53 52 52 52 51 50

GFSFLT2_500_spd_096.txt.gz
Wind_Speed
39 41 42 43 46 40 40 36 32 26 21 24 21 14 17 13 12 15 21 18 12 25 30 24 23 21 19 21 19 21 20 20
41 42 44 43 43 46 44 43 37 31 23 21 22 18 17 17 16 13 13 14 13 21 19 15 19 23 22 21 22 21 21 22
43 43 43 44 44 46 45 46 42 36 30 22 22 20 23 20 18 16 15 16 16 14 16 21 29 22 22 21 21 22 23 24
45 45 44 44 45 43 45 45 45 42 36 31 27 25 25 25 23 20 19 15 12 12 16 17 32 29 24 22 19 21 24 26
45 46 45 46 46 47 46 45 45 42 37 32 33 30 29 26 21 22 21 18 15 12 13 18 26 26 31 24 23 22 22 26
42 45 46 46 47 47 47 47 45 43 36 34 33 34 35 29 24 22 24 22 20 17 16 18 28 28 35 32 33 29 32 23
40 42 44 45 47 47 47 47 47 43 41 36 36 31 27 27 20 17 23 23 20 21 19 19 21 22 17 32 35 26 24 31
29 42 42 46 45 46 45 46 45 44 44 42 40 37 32 27 21 17 18 20 25 23 22 21 21 20 27 24 25 20 16 18
28 40 42 45 48 47 47 44 43 42 42 44 44 44 41 31 30 31 28 25 18 20 21 22 22 21 25 25 16 11 14 19
31 30 46 47 49 50 48 44 43 41 41 44 45 47 47 48 40 39 34 30 28 26 25 26 25 26 29 25 23 20 20 18
26 29 39 48 45 48 45 43 42 42 42 41 43 46 44 44 44 42 35 31 26 28 30 29 28 27 28 25 22 25 22 19
23 30 35 44 44 42 48 45 42 42 39 39 39 37 35 36 38 40 39 37 30 30 32 30 28 26 28 25 20 18 16 15
18 29 32 38 47 43 45 48 44 43 41 43 43 44 41 39 39 33 37 38 42 35 37 36 34 30 30 27 25 23 22 23
14 23 28 35 41 46 45 49 50 44 43 48 47 48 48 37 37 41 37 39 40 43 42 39 36 36 34 33 30 29 28 25
9 14 22 33 31 42 43 42 45 42 35 38 40 37 37 38 36 39 42 44 46 47 47 45 41 42 42 42 40 38 37 30
12 7 9 16 29 29 40 36 42 44 44 38 35 39 40 38 38 46 48 48 51 45 46 47 48 46 44 45 44 43 43 39
12 10 11 13 14 19 27 34 38 40 43 43 35 32 40 31 40 52 54 51 53 50 49 50 50 47 50 51 51 48 45 45
14 15 13 12 16 19 22 28 32 35 31 36 39 36 37 33 37 47 44 42 47 48 48 51 49 49 51 52 53 55 54 54
12 13 15 17 18 19 21 24 25 29 36 40 40 42 38 39 45 41 40 40 42 44 45 44 45 49 52 52 53 53 55 54

GFSFLT2_500_spd_099.txt.gz
Wind_Speed
38 38 39 41 43 42 39 35 31 28 16 21 17 14 15 17 12 18 29 17 17 25 26 23 19 18 21 21 22 23 23 19
40 40 41 41 39 41 42 39 36 30 27 18 22 15 17 15 17 17 20 20 16 17 21 22 19 24 20 19 23 24 25 24
42 43 41 42 43 42 42 41 36 33 24 17 18 21 20 20 19 18 14 16 20 19 22 23 18 28 24 24 23 26 26 26
43 44 43 43 44 42 41 42 40 36 30 27 19 20 22 23 21 21 22 20 23 21 22 26 23 34 28 25 25 22 25 25
40 44 44 45 45 45 43 41 41 38 33 32 29 26 22 22 23 20 19 22 22 21 21 23 33 35 17 34 22 24 25 26
40 41 43 44 45 45 44 43 41 39 35 33 34 29 29 27 25 22 23 22 21 23 16 19 22 24 31 27 25 26 32 26
31 41 43 43 46 44 44 43 42 38 36 33 31 33 31 31 31 26 24 25 24 22 20 21 18 18 26 32 24 33 33 32
30 32 44 44 44 46 45 44 43 41 38 37 32 32 32 28 25 28 26 18 20 22 23 22 21 19 21 21 21 23 38 32
28 32 37 45 45 47 48 46 44 43 40 36 34 33 34 32 29 25 24 18 14 13 22 20 20 21 19 19 26 20 26 27
25 30 33 47 46 46 48 47 46 44 42 38 38 37 36 38 34 33 29 24 23 18 17 17 18 21 20 21 22 18 17 15
26 29 29 38 48 46 47 46 46 43 43 38 37 37 38 38 40 39 34 29 29 27 25 28 26 24 25 23 22 22 20 23
25 28 26 30 41 47 45 45 39 40 42 39 34 35 34 34 37 38 40 42 42 43 36 30 28 28 27 27 25 26 23 22
19 26 30 30 32 42 46 46 46 43 41 39 37 36 36 37 36 35 36 38 39 40 39 33 31 29 30 29 28 27 24 23
18 22 25 30 32 34 45 48 44 44 41 40 39 39 38 38 36 34 36 34 35 36 41 43 37 35 34 33 31 30 25 24
11 15 18 26 33 32 35 50 44 41 46 47 45 42 41 42 39 43 41 34 39 42 43 46 46 45 39 40 37 33 31 30
7 7 10 15 23 29 33 37 48 44 44 48 47 44 42 46 49 47 45 46 43 46 44 46 46 45 46 48 44 40 38 39
10 9 10 11 11 18 30 44 44 51 45 48 47 44 40 36 44 50 40 44 44 45 49 50 50 51 49 49 47 44 43 45
13 13 11 10 11 13 12 19 22 34 37 43 53 39 38 43 44 46 50 44 48 52 53 55 57 61 57 55 51 49 48 48
12 13 15 16 16 15 14 15 19 21 30 33 46 46 49 32 43 37 40 51 64 60 59 61 62 68 56 53 53 54 56 51

GFSFLT2_500_spd_102.txt.gz
Wind_Speed
42 39 38 36 42 38 28 26 22 20 24 20 18 15 12 13 13 15 19 24 23 24 23 23 23 26 27 26 24 22 21 19
39 40 39 41 37 36 37 23 20 18 19 15 17 14 13 14 16 17 19 30 29 28 26 26 24 24 24 26 25 24 23 22
40 40 39 40 38 39 28 29 21 20 18 24 14 18 16 17 16 22 21 23 27 19 28 31 30 27 23 23 22 24 25 24
29 42 42 42 41 39 38 33 32 23 23 21 24 19 22 22 17 18 21 19 14 22 22 24 32 36 14 30 32 26 24 26
25 36 40 41 39 41 36 25 26 32 24 26 24 23 27 28 22 17 15 15 18 27 24 30 32 32 35 25 36 36 30 30
20 26 26 37 43 41 42 39 31 25 28 32 33 28 24 17 21 23 18 16 18 22 25 27 22 28 33 30 27 40 32 31
35 36 36 34 33 43 42 40 31 22 28 33 36 37 32 26 25 22 22 22 22 23 24 20 30 18 21 22 23 27 31 33
25 35 39 42 41 42 42 41 40 38 30 32 34 39 40 35 30 29 28 26 22 26 28 21 20 18 20 22 24 21 27 26
18 26 32 36 37 43 45 43 42 38 36 40 34 34 36 38 34 29 28 28 26 26 29 28 25 23 22 22 22 20 19 22
19 28 32 29 35 44 44 44 43 43 42 39 37 35 35 36 36 32 29 28 26 22 20 16 23 24 23 22 22 20 18 27
26 20 22 37 40 41 44 45 43 43 42 42 39 36 36 36 38 38 36 33 30 28 23 22 18 22 19 19 21 19 19 15
20 27 27 29 35 35 40 45 42 43 42 42 40 39 37 37 36 40 42 39 35 33 30 29 30 24 24 26 22 22 23 21
10 25 26 33 31 29 33 40 42 42 43 42 42 42 38 37 37 38 39 41 43 41 39 39 38 36 32 29 29 28 26 24
19 20 25 29 32 31 33 39 45 42 40 41 40 41 39 40 41 40 40 39 39 43 45 45 43 43 38 33 34 32 30 29
22 22 23 24 28 31 34 36 40 44 43 41 40 39 40 38 39 39 39 36 35 37 39 42 44 44 42 39 38 36 34 31
17 17 17 20 20 24 31 34 37 42 45 44 44 43 40 38 38 38 38 40 40 42 42 42 43 43 44 44 43 40 38 38
15 10 11 13 12 15 18 26 30 31 40 46 42 42 46 45 44 45 45 44 45 46 47 46 44 47 48 48 48 48 47 44
14 14 14 13 11 11 10 17 28 33 32 43 47 38 41 56 49 48 48 54 46 47 50 51 51 50 52 51 52 53 52 52
15 16 17 16 16 14 12 12 15 30 40 38 40 38 44 34 49 48 47 49 49 42 52 51 58 57 59 58 57 57 57 58

GFSFLT2_500_spd_105.txt.gz
Wind_Speed
34 36 28 25 30 27 22 13 22 10 12 28 8 11 15 14 11 12 11 9 29 25 25 21 28 29 25 24 24 21 19 18
31 38 37 28 18 25 27 25 10 8 13 14 24 17 13 15 15 15 14 12 31 30 28 28 28 26 24 24 24 24 22 21
28 37 32 37 36 27 23 23 21 13 13 21 21 10 15 17 17 16 16 16 19 26 29 29 28 23 21 24 25 23 23 24
12 25 34 20 26 28 20 25 24 23 27 20 16 20 20 18 19 17 17 19 29 33 36 36 31 23 30 22 23 23 23 25
15 17 30 34 28 24 22 21 20 21 23 22 18 25 24 25 22 22 19 21 17 18 27 27 31 30 27 22 27 28 29 28
25 32 25 21 36 26 25 22 22 21 23 26 25 27 28 26 26 28 21 14 16 17 19 25 26 23 24 28 31 27 31 34
18 24 36 13 18 28 36 32 24 21 18 19 24 36 32 30 24 26 24 18 15 15 16 21 26 21 25 22 18 18 24 30
35 13 20 33 26 29 27 29 29 28 20 18 32 37 37 34 24 22 23 24 19 18 17 17 18 18 16 18 13 17 20 18
11 20 19 29 31 27 31 26 27 27 27 36 32 38 40 40 36 30 27 23 22 22 21 19 22 23 19 18 19 19 16 19
14 17 26 19 34 37 35 35 37 40 31 44 40 35 36 37 39 35 31 26 29 28 28 26 27 25 25 24 22 21 20 19
18 19 22 25 26 36 37 37 42 36 45 46 44 36 34 35 37 36 36 34 28 28 27 27 25 25 26 24 20 20 22 20
17 24 27 30 31 28 35 34 39 22 41 41 42 38 40 40 38 37 39 41 37 33 32 29 27 24 23 24 23 20 19 21
17 18 20 34 36 21 23 31 44 45 40 37 42 41 43 39 39 40 43 44 44 42 39 36 35 35 33 30 25 22 23 26
22 26 23 28 34 33 26 31 38 37 39 40 39 39 40 40 41 43 45 46 47 47 45 42 43 42 39 39 38 35 31 29
18 26 29 24 27 27 30 33 35 34 35 39 40 37 39 40 43 42 44 45 46 46 51 53 50 48 47 47 44 41 37 34
28 34 29 29 28 28 27 30 34 33 32 35 40 38 38 39 40 40 42 43 44 44 45 48 52 53 53 53 50 48 46 42
16 22 22 23 19 16 19 23 26 32 33 33 39 41 41 40 39 41 41 42 42 43 45 45 47 47 49 49 49 46 44 44
16 13 13 11 13 13 13 17 22 25 29 33 35 42 43 44 42 45 44 42 42 43 45 46 47 46 46 48 47 49 48 47
16 15 15 15 15 14 13 12 14 19 27 33 35 34 42 37 36 41 48 48 51 49 49 48 49 49 49 50 52 52 55 56

GFSFLT2_500_spd_108.txt.gz
Wind_Speed
25 31 24 16 26 21 19 18 10 17 9 6 13 14 9 10 5 5 7 5 27 28 26 29 26 23 21 22 20 16 15 13
18 30 34 23 11 17 25 20 13 21 26 15 6 10 12 12 10 8 11 9 10 35 30 31 23 23 19 16 20 19 16 17
21 26 29 35 27 24 19 18 20 22 17 8 7 15 8 12 17 14 12 11 12 25 30 28 25 26 26 28 21 22 18 19
7 12 20 24 25 19 22 25 25 19 32 27 19 19 15 14 13 15 18 15 12 16 28 28 32 36 29 24 20 21 21 20
11 10 13 20 19 15 22 17 17 15 23 29 31 16 18 20 21 20 21 17 17 22 27 31 32 34 31 26 19 19 23 19
24 27 23 20 24 22 15 21 14 12 22 26 30 27 15 21 23 22 22 18 21 26 24 25 27 23 32 15 23 26 25 18
26 26 26 25 26 25 25 26 20 18 16 26 31 26 33 28 27 26 29 25 24 25 25 21 16 28 15 32 27 29 25 24
26 13 32 21 14 26 22 25 35 29 28 38 3 20 27 34 38 34 31 32 30 28 25 20 14 22 27 19 22 19 28 24
34 34 12 14 19 18 22 27 28 28 27 31 27 38 21 39 35 40 35 33 28 30 28 22 18 16 15 12 9 16 19 16
29 26 32 20 23 37 22 33 38 45 39 35 38 39 29 20 26 34 37 31 32 25 26 25 25 19 19 17 17 18 18 19
20 22 18 25 32 27 43 29 34 41 46 53 50 42 19 13 31 29 33 34 31 31 32 28 26 25 23 22 23 23 22 20
16 22 28 31 27 36 38 48 55 48 40 45 53 43 25 39 31 38 45 42 37 33 31 29 28 27 27 28 28 24 20 20
20 15 26 26 31 39 38 34 36 36 46 44 56 63 49 30 37 37 36 39 42 40 37 32 27 28 29 26 25 26 25 25
25 27 26 25 24 33 40 38 34 21 34 48 53 45 42 42 42 41 40 40 42 42 40 40 37 36 34 34 31 30 28 28
33 26 16 18 41 9 15 26 37 30 23 30 43 51 46 39 41 43 43 44 46 47 45 45 43 43 40 40 40 35 36 37
17 24 36 29 21 23 25 24 25 25 29 30 33 37 37 44 41 44 46 46 47 47 46 45 46 47 48 48 46 45 45 45
18 22 19 18 22 26 29 26 27 28 26 28 31 32 35 39 40 42 44 44 46 46 45 44 45 45 49 52 53 54 53 52
15 16 15 10 12 14 15 18 20 22 24 25 28 30 32 36 40 40 41 42 42 44 44 45 47 48 49 49 50 51 53 51
16 16 14 13 15 14 14 11 12 14 16 21 25 29 30 34 38 42 42 43 42 43 43 44 45 48 49 50 51 51 50 51

GFSFLT2_500_spd_111.txt.gz
Wind_Speed
19 24 25 22 24 20 16 18 9 14 21 15 10 9 4 7 30 14 9 21 34 33 26 27 25 24 24 22 20 17 14 11
15 19 26 23 14 19 25 17 8 9 12 16 11 14 18 10 4 6 10 2 36 32 31 29 24 29 27 25 21 19 18 17
20 24 19 28 23 22 29 26 15 15 15 20 14 25 20 24 20 11 8 10 9 15 31 29 26 28 26 28 24 24 22 21
31 18 11 28 28 22 19 21 16 17 19 22 23 21 24 22 23 25 20 17 17 14 20 33 38 33 27 28 27 24 23 23
25 22 19 12 32 33 27 26 26 22 26 20 18 27 19 24 22 23 11 15 13 10 8 24 27 30 30 25 27 26 22 24
20 19 29 22 31 22 17 29 22 13 17 17 16 23 8 9 6 12 12 12 17 18 20 15 23 25 23 28 34 29 23 21
14 19 23 27 34 33 29 25 27 15 23 21 18 25 30 24 22 19 19 22 20 20 19 22 21 16 20 31 37 32 22 20
38 21 21 30 33 39 36 29 32 26 32 29 22 13 23 15 17 29 34 32 27 24 23 21 16 20 24 22 26 29 27 29
46 39 29 21 26 25 37 32 40 29 38 28 39 28 9 14 23 29 29 23 23 25 26 27 22 21 20 16 19 22 27 22
39 42 28 23 24 23 38 38 48 40 46 37 39 41 35 33 37 17 16 25 20 26 25 25 21 22 19 17 16 15 15 18
37 38 28 27 24 25 36 36 44 50 51 46 43 42 44 39 40 34 23 42 29 25 26 22 23 25 23 19 21 20 22 21
24 29 35 34 35 29 30 41 40 38 48 52 45 47 41 34 36 30 30 26 34 27 28 29 24 25 28 25 25 23 20 19
21 29 32 43 31 33 38 38 40 39 42 44 49 50 56 55 48 39 31 38 41 37 37 34 33 35 33 25 24 23 25 22
23 26 30 29 40 36 32 42 44 44 46 50 49 52 52 52 54 57 50 32 32 34 35 35 31 30 29 29 30 30 28 32
21 29 26 25 24 35 31 38 36 39 45 40 45 50 57 56 53 53 53 52 40 43 40 40 41 42 42 40 37 33 34 33
16 26 26 35 37 13 18 18 21 18 25 37 41 31 34 50 56 48 54 43 40 48 46 48 47 43 43 43 43 42 38 37
16 17 16 18 21 20 17 15 18 19 20 22 26 33 34 33 29 37 45 48 41 45 50 47 47 47 45 44 44 46 46 45
16 16 11 10 10 4 10 10 11 15 17 21 22 26 31 33 32 28 33 43 48 47 49 50 50 48 47 47 46 46 47 47
13 13 11 12 9 5 7 12 13 11 11 14 19 24 28 30 31 29 28 34 43 46 47 48 49 48 49 48 45 47 48 48

GFSFLT2_500_spd_114.txt.gz
Wind_Speed
23 22 23 21 15 20 7 3 3 6 10 12 8 3 2 15 36 36 25 27 28 30 23 26 29 28 23 22 18 18 17 14
26 14 21 23 21 19 20 15 9 6 3 4 4 10 4 2 38 36 26 21 23 29 29 27 26 26 26 24 23 22 20 17
27 26 22 23 21 17 19 17 17 17 7 6 8 6 9 7 18 30 28 21 14 20 28 34 26 25 27 27 24 24 23 21
26 28 31 28 23 23 23 21 20 20 16 12 13 10 10 3 19 17 17 16 13 11 21 31 28 29 23 29 26 26 24 22
31 30 26 33 27 28 25 24 22 20 17 16 8 13 23 17 17 25 17 15 11 11 14 14 26 35 32 25 28 29 25 28
37 34 30 30 34 33 31 30 27 25 24 22 20 17 22 26 15 25 32 18 15 15 14 11 9 26 30 27 29 28 27 29
43 39 33 32 32 38 37 38 33 29 30 29 28 21 15 22 22 23 10 17 15 16 18 17 13 13 20 21 11 17 29 32
32 34 26 38 37 40 40 40 36 38 36 34 34 25 19 22 24 29 26 27 29 25 23 21 21 20 22 22 24 24 15 29
35 40 31 22 36 44 42 39 37 41 42 40 35 33 25 24 35 30 35 34 36 31 26 24 23 24 25 29 29 29 24 20
33 37 35 35 27 41 44 39 39 40 43 41 37 38 33 27 30 37 28 4 21 20 23 25 25 25 26 28 29 27 22 19
28 38 37 34 36 33 39 44 43 46 45 46 42 41 39 35 38 36 38 27 24 7 17 26 25 24 25 29 28 26 22 25
28 34 35 33 32 37 37 33 37 48 50 46 46 44 43 39 36 29 9 20 14 13 20 27 26 30 36 34 30 23 32 27
27 30 34 36 40 30 37 36 44 42 54 50 49 48 49 45 38 30 28 23 21 19 26 32 31 35 46 29 16 31 28 22
27 31 27 28 33 35 36 37 37 39 44 44 52 50 51 52 47 44 41 41 41 37 32 35 37 40 39 39 33 31 35 23
14 25 29 28 25 30 36 37 34 37 42 43 42 41 42 42 46 47 46 44 41 41 45 42 33 35 37 32 29 28 23 21
14 15 21 23 32 24 26 28 44 37 38 42 45 45 45 48 53 53 54 57 53 50 46 48 47 41 41 42 41 40 40 37
13 14 10 15 20 21 26 35 16 30 34 28 21 30 40 49 46 47 44 39 44 50 51 51 51 52 49 48 44 45 45 44
15 15 14 11 9 8 10 12 15 15 15 16 20 21 23 25 38 41 44 37 34 31 47 48 50 51 54 53 53 47 47 47
15 16 15 13 11 13 13 16 15 14 11 11 13 16 18 20 21 23 27 31 37 34 33 41 49 48 50 56 56 54 50 49

GFSFLT2_500_spd_117.txt.gz
Wind_Speed
27 20 19 14 10 15 17 11 4 1 7 8 1 7 5 10 22 35 38 37 32 31 26 25 22 20 19 16 14 14 13 12
28 26 25 19 17 17 22 11 6 2 5 2 5 5 9 12 17 25 43 35 35 33 29 28 26 24 22 18 18 16 15 13
25 28 26 26 25 23 22 16 13 8 4 4 3 7 12 11 12 18 51 34 28 30 29 28 26 27 25 24 23 21 19 18
30 28 25 26 25 28 25 22 19 18 11 12 12 10 12 5 17 12 27 25 28 22 27 31 30 29 24 26 26 26 23 22
26 27 25 26 30 29 25 23 20 19 18 16 16 12 11 13 18 12 25 26 19 13 18 28 33 35 30 27 25 24 22 23
32 31 34 38 30 31 30 26 23 22 22 20 20 22 22 16 13 7 23 22 24 19 17 19 29 34 31 33 28 21 24 24
35 38 39 36 34 35 33 31 28 27 26 24 23 25 25 19 13 15 19 30 22 20 20 23 22 26 31 32 29 27 21 26
39 42 44 43 39 35 34 34 34 34 31 30 28 30 28 23 15 16 18 24 29 27 23 21 24 18 27 31 29 29 18 19
29 36 33 48 40 38 39 40 40 39 34 35 35 34 32 27 22 20 24 28 30 31 25 20 25 27 24 28 25 27 27 24
27 32 37 37 43 37 42 40 41 37 35 41 37 36 36 34 31 31 28 36 42 34 33 27 28 31 32 33 33 32 24 33
23 30 37 34 41 32 40 35 40 42 40 40 41 42 39 38 37 33 28 31 37 24 13 35 34 33 33 32 29 32 37 37
21 27 32 35 33 35 33 31 45 41 42 41 42 43 45 43 36 31 29 33 33 28 5 12 15 36 38 34 36 36 37 35
22 27 29 31 36 34 35 37 37 41 47 43 46 47 48 47 44 39 34 24 24 14 18 18 18 20 24 27 29 35 40 35
18 23 26 26 29 37 36 30 37 41 38 41 44 49 46 47 49 45 40 35 28 20 18 22 29 25 27 30 32 35 28 26
19 17 22 29 25 32 39 38 38 32 36 37 39 50 47 53 54 53 47 45 41 38 32 29 30 35 38 39 39 36 36 35
20 17 14 15 22 21 25 27 27 27 38 38 34 33 40 44 43 44 42 37 36 38 40 35 36 40 43 44 44 39 35 37
20 19 16 11 16 22 24 26 21 20 18 31 40 36 34 36 41 47 48 45 42 42 42 44 43 43 45 48 48 47 46 43
15 19 19 15 13 19 21 19 22 21 19 17 26 35 38 37 39 42 46 48 48 50 46 46 42 34 36 44 47 50 49 48
16 19 23 19 15 15 16 12 16 16 17 17 18 18 21 24 24 22 24 28 32 37 41 41 38 39 39 36 40 45 48 48

GFSFLT2_500_spd_120.txt.gz
Wind_Speed
25 21 23 11 13 18 17 20 11 11 9 6 8 14 24 28 34 31 33 30 25 28 29 28 23 20 18 17 15 14 13 12
26 27 23 18 19 17 18 18 7 8 8 7 6 4 10 9 16 22 31 37 37 35 32 30 26 24 21 19 18 16 14 13
32 28 25 25 23 17 15 16 17 3 2 3 3 4 5 4 8 12 9 37 38 38 36 33 31 29 26 22 20 18 17 16
28 29 28 26 25 25 22 18 17 14 10 8 7 5 3 4 8 15 12 32 42 38 36 33 31 29 28 24 23 21 22 21
30 27 31 32 29 29 28 24 25 23 19 17 15 16 11 8 6 11 6 34 39 41 38 33 31 28 27 27 26 25 24 24
30 27 29 31 33 32 30 28 24 25 19 20 19 16 16 13 10 3 5 19 30 32 31 29 33 33 32 29 29 27 29 29
37 38 36 32 36 36 32 27 27 24 22 20 19 19 16 15 13 11 12 12 22 26 23 26 33 32 36 34 37 29 28 24
28 42 42 37 37 34 32 31 30 28 27 24 22 19 20 17 16 11 10 15 11 18 21 28 29 40 38 36 33 31 33 32
29 27 39 45 45 38 37 33 30 30 32 30 28 25 24 22 25 18 17 19 22 15 26 23 21 24 29 26 27 33 31 34
27 29 36 37 32 41 40 40 35 34 33 34 31 29 27 29 29 23 21 18 19 24 28 23 26 33 31 32 29 31 34 30
25 28 32 35 32 38 40 47 41 41 37 34 32 33 33 30 29 28 28 28 28 29 30 31 27 28 36 32 35 32 34 40
21 24 25 25 25 28 35 40 33 37 33 35 36 34 33 35 36 36 32 27 28 26 24 34 27 26 34 38 37 40 41 42
21 23 25 23 23 23 33 28 39 35 35 29 30 35 37 35 36 36 34 33 28 27 22 16 28 31 19 24 39 41 47 42
21 22 23 23 23 24 26 32 31 27 28 27 33 36 36 36 33 31 35 35 34 32 27 19 22 19 20 23 27 27 31 30
23 23 21 20 24 25 22 24 31 32 23 35 36 34 35 37 37 37 33 34 35 30 29 29 28 25 24 28 30 35 32 30
22 25 24 22 24 27 26 23 21 27 32 31 30 38 40 39 40 37 38 32 29 29 25 20 21 29 31 29 29 32 36 33
17 19 21 19 19 22 26 22 20 18 23 25 27 33 35 37 37 36 32 31 30 33 33 33 30 28 30 35 37 36 38 40
19 19 19 21 20 19 24 24 21 22 18 25 17 18 25 33 40 39 35 35 34 33 34 39 40 43 41 43 46 42 35 32
18 19 18 20 20 17 18 21 22 21 24 23 22 21 17 22 27 32 31 29 29 30 28 30 29 32 34 35 36 33 32 31